Observation data for Big Lake on 11/22/2019      Previous  Date       Current Mesonet Observations  Soil Data  Daily Summary Page  Observations in Plain Language
KBI1 220600Z 35014G20KT 09/08 A3004 RMK A01 T00860080  RH  096%=      5-min Rain = 0
KBI1 220601Z 35014G20KT 09/08 A3004 RMK A01 T00860080  RH  096%=      5-min Rain = 0
KBI1 220602Z 34016KT 09/08 A3005 RMK A01 T00850079  RH  096%=      5-min Rain = 0
KBI1 220603Z 35013G20KT 08/08 A3005 RMK A01 T00840078  RH  096%=      5-min Rain = 0
KBI1 220604Z 35016KT 08/08 A3005 RMK A01 T00840078  RH  096%=      5-min Rain = 0
KBI1 220605Z 35016KT 08/08 A3005 RMK A01 T00830078  RH  096%=      5-min Rain = 0
KBI1 220606Z 36014KT 08/08 A3005 RMK A01 T00820077  RH  097%=      5-min Rain = 0
KBI1 220607Z 36014KT 08/08 A3005 RMK A01 T00820077  RH  097%=      5-min Rain = 0
KBI1 220608Z 35017KT 08/08 A3005 RMK A01 T00810076  RH  097%=      5-min Rain = 0
KBI1 220609Z 36016KT 08/08 A3005 RMK A01 T00810076  RH  097%=      5-min Rain = 0
KBI1 220610Z 35015KT 08/08 A3005 RMK A01 T00810076  RH  097%=      5-min Rain = 0
KBI1 220611Z 35016KT 08/08 A3005 RMK A01 T00800075  RH  097%=      5-min Rain = 0
KBI1 220612Z 35018KT 08/08 A3005 RMK A01 T00800075  RH  097%=      5-min Rain = 0
KBI1 220613Z 35015KT 08/08 A3005 RMK A01 T00800076  RH  097%=      5-min Rain = 0
KBI1 220614Z 35015KT 08/08 A3005 RMK A01 T00790075  RH  097%=      5-min Rain = 0
KBI1 220615Z 36015KT 08/08 A3005 RMK A01 T00790076  RH  097%=      5-min Rain = 0
KBI1 220616Z 35014KT 08/08 A3005 RMK A01 T00800076  RH  097%=      5-min Rain = 0
KBI1 220617Z 35011KT 08/08 A3005 RMK A01 T00790075  RH  098%=      5-min Rain = 0
KBI1 220618Z 34013KT 08/08 A3005 RMK A01 T00790076  RH  098%=      5-min Rain = 0
KBI1 220619Z 35013G18KT 08/08 A3005 RMK A01 T00790076  RH  098%=      5-min Rain = 0
KBI1 220620Z 34013KT 08/08 A3005 RMK A01 T00800076  RH  098%=      5-min Rain = 0
KBI1 220621Z 35017KT 08/08 A3005 RMK A01 T00790076  RH  098%=      5-min Rain = 0
KBI1 220622Z 35016G21KT 08/08 A3005 RMK A01 T00790075  RH  098%=      5-min Rain = 0
KBI1 220623Z 35016KT 08/07 A3005 RMK A01 T00780074  RH  098%=      5-min Rain = 0
KBI1 220624Z 35017KT 08/07 A3005 RMK A01 T00770074  RH  098%=      5-min Rain = 0
KBI1 220625Z 36014KT 08/07 A3005 RMK A01 T00760073  RH  098%=      5-min Rain = 0
KBI1 220626Z 35017KT 08/07 A3005 RMK A01 T00760073  RH  098%=      5-min Rain = 0
KBI1 220627Z 34015KT 08/07 A3005 RMK A01 T00760073  RH  098%=      5-min Rain = 0
KBI1 220628Z 34017KT 08/07 A3005 RMK A01 T00760073  RH  098%=      5-min Rain = 0
KBI1 220629Z 34018KT 08/07 A3005 RMK A01 T00760073  RH  098%=      5-min Rain = 0
KBI1 220630Z 35017KT 08/07 A3006 RMK A01 T00750072  RH  098%=      5-min Rain = 0
KBI1 220631Z 35015KT 08/07 A3006 RMK A01 T00750072  RH  098%=      5-min Rain = 0
KBI1 220632Z 34017KT 08/07 A3006 RMK A01 T00750072  RH  098%=      5-min Rain = 0
KBI1 220633Z 35015KT 08/07 A3006 RMK A01 T00750072  RH  098%=      5-min Rain = 0
KBI1 220634Z 35017G23KT 08/07 A3006 RMK A01 T00750072  RH  098%=      5-min Rain = 0
KBI1 220635Z 35019KT 08/07 A3006 RMK A01 T00750072  RH  098%=      5-min Rain = 0
KBI1 220636Z 35019KT 07/07 A3006 RMK A01 T00740071  RH  098%=      5-min Rain = 0
KBI1 220637Z 35016KT 07/07 A3006 RMK A01 T00730070  RH  098%=      5-min Rain = 0
KBI1 220638Z 35018KT 07/07 A3006 RMK A01 T00730070  RH  098%=      5-min Rain = 0
KBI1 220639Z 35016KT 07/07 A3006 RMK A01 T00730070  RH  098%=      5-min Rain = 0
KBI1 220640Z 35016G21KT 07/07 A3006 RMK A01 T00730070  RH  098%=      5-min Rain = 0
KBI1 220641Z 34017KT 07/07 A3006 RMK A01 T00730070  RH  098%=      5-min Rain = 0
KBI1 220642Z 34014G19KT 07/07 A3006 RMK A01 T00730070  RH  098%=      5-min Rain = 0
KBI1 220643Z 34014KT 07/07 A3006 RMK A01 T00730070  RH  098%=      5-min Rain = 0
KBI1 220644Z 34014KT 07/07 A3007 RMK A01 T00730070  RH  098%=      5-min Rain = 0
KBI1 220645Z 35015KT 07/07 A3007 RMK A01 T00730070  RH  098%=      5-min Rain = 0
KBI1 220646Z 35012KT 07/07 A3007 RMK A01 T00730070  RH  098%=      5-min Rain = 0
KBI1 220647Z 35011KT 07/07 A3007 RMK A01 T00730070  RH  098%=      5-min Rain = 0
KBI1 220648Z 35013KT 07/07 A3007 RMK A01 T00730070  RH  098%=      5-min Rain = 0
KBI1 220649Z 35015KT 07/07 A3008 RMK A01 T00730070  RH  098%=      5-min Rain = 0
KBI1 220650Z 35015KT 07/07 A3008 RMK A01 T00720070  RH  098%=      5-min Rain = 0
KBI1 220651Z 36013KT 07/07 A3008 RMK A01 T00720069  RH  098%=      5-min Rain = 0
KBI1 220652Z 35014KT 07/07 A3008 RMK A01 T00720069  RH  098%=      5-min Rain = 0
KBI1 220653Z 35013KT 07/07 A3008 RMK A01 T00720069  RH  098%=      5-min Rain = 0
KBI1 220654Z 36013KT 07/07 A3008 RMK A01 T00720069  RH  098%=      5-min Rain = 0
KBI1 220655Z 35015KT 07/07 A3008 RMK A01 T00720069  RH  098%=      5-min Rain = 0
KBI1 220656Z 35013KT 07/07 A3008 RMK A01 T00710068  RH  098%=      5-min Rain = 0
KBI1 220657Z 35014KT 07/07 A3008 RMK A01 T00710068  RH  098%=      5-min Rain = 0
KBI1 220658Z 34015KT 07/07 A3008 RMK A01 T00700068  RH  098%=      5-min Rain = 0
KBI1 220659Z 35017KT 07/07 A3008 RMK A01 T00700067  RH  098%=      5-min Rain = 0
KBI1 220700Z 35018KT 07/07 A3008 RMK A01 T00710068  RH  098%=      5-min Rain = 0
KBI1 220701Z 35015KT 07/07 A3008 RMK A01 T00700067  RH  098%=      5-min Rain = 0
KBI1 220702Z 34014KT 07/07 A3008 RMK A01 T00700067  RH  098%=      5-min Rain = 0
KBI1 220703Z 35016KT 07/07 A3008 RMK A01 T00700067  RH  098%=      5-min Rain = 0
KBI1 220704Z 34016KT 07/07 A3009 RMK A01 T00690066  RH  098%=      5-min Rain = 0
KBI1 220705Z 34014KT 07/07 A3009 RMK A01 T00690066  RH  098%=      5-min Rain = 0
KBI1 220706Z 34014KT 07/07 A3009 RMK A01 T00700066  RH  098%=      5-min Rain = 0
KBI1 220707Z 35013KT 07/07 A3009 RMK A01 T00690066  RH  098%=      5-min Rain = 0
KBI1 220708Z 35013G18KT 07/07 A3009 RMK A01 T00700066  RH  098%=      5-min Rain = 0
KBI1 220709Z 34011KT 07/07 A3009 RMK A01 T00690066  RH  098%=      5-min Rain = 0
KBI1 220710Z 35013G19KT 07/07 A3009 RMK A01 T00690066  RH  098%=      5-min Rain = 0
KBI1 220711Z 35015KT 07/07 A3008 RMK A01 T00690066  RH  098%=      5-min Rain = 0
KBI1 220712Z 35017KT 07/07 A3008 RMK A01 T00700066  RH  098%=      5-min Rain = 0
KBI1 220713Z 35015KT 07/07 A3009 RMK A01 T00690066  RH  098%=      5-min Rain = 0
KBI1 220714Z 35014KT 07/07 A3009 RMK A01 T00690065  RH  098%=      5-min Rain = 0
KBI1 220715Z 35014G19KT 07/07 A3008 RMK A01 T00690066  RH  098%=      5-min Rain = 0
KBI1 220716Z 34015KT 07/07 A3009 RMK A01 T00690066  RH  098%=      5-min Rain = 0
KBI1 220717Z 35012G17KT 07/07 A3009 RMK A01 T00690066  RH  098%=      5-min Rain = 0
KBI1 220718Z 35016G22KT 07/07 A3009 RMK A01 T00690066  RH  098%=      5-min Rain = 0
KBI1 220719Z 35015G22KT 07/07 A3008 RMK A01 T00690065  RH  098%=      5-min Rain = 0
KBI1 220720Z 36016G21KT 07/07 A3008 RMK A01 T00690066  RH  098%=      5-min Rain = 0
KBI1 220721Z 35015KT 07/07 A3008 RMK A01 T00690065  RH  098%=      5-min Rain = 0
KBI1 220722Z 35016KT 07/07 A3008 RMK A01 T00680065  RH  098%=      5-min Rain = 0
KBI1 220723Z 35013KT 07/07 A3008 RMK A01 T00680065  RH  098%=      5-min Rain = 0
KBI1 220724Z 35015KT 07/06 A3008 RMK A01 T00680064  RH  098%=      5-min Rain = 0
KBI1 220725Z 35015KT 07/06 A3008 RMK A01 T00680064  RH  097%=      5-min Rain = 0
KBI1 220726Z 35015KT 07/06 A3008 RMK A01 T00670063  RH  097%=      5-min Rain = 0
KBI1 220727Z 35016G21KT 07/06 A3008 RMK A01 T00660062  RH  097%=      5-min Rain = 0
KBI1 220728Z 35016KT 07/06 A3008 RMK A01 T00650061  RH  097%=      5-min Rain = 0
KBI1 220729Z 35016KT 07/06 A3008 RMK A01 T00650061  RH  097%=      5-min Rain = 0
KBI1 220730Z 35013KT 07/06 A3008 RMK A01 T00650061  RH  097%=      5-min Rain = 0
KBI1 220731Z 36011KT 06/06 A3008 RMK A01 T00640060  RH  097%=      5-min Rain = 0
KBI1 220732Z 36015KT 06/06 A3008 RMK A01 T00640060  RH  097%=      5-min Rain = 0
KBI1 220733Z 35016KT 06/06 A3008 RMK A01 T00640060  RH  097%=      5-min Rain = 0
KBI1 220734Z 35013KT 07/06 A3008 RMK A01 T00650061  RH  097%=      5-min Rain = 0
KBI1 220735Z 34013KT 07/06 A3008 RMK A01 T00650061  RH  097%=      5-min Rain = 0
KBI1 220736Z 35013KT 06/06 A3008 RMK A01 T00640060  RH  097%=      5-min Rain = 0
KBI1 220737Z 34012KT 07/06 A3008 RMK A01 T00650061  RH  097%=      5-min Rain = 0
KBI1 220738Z 35013G18KT 07/06 A3008 RMK A01 T00650061  RH  097%=      5-min Rain = 0
KBI1 220739Z 35015KT 07/06 A3008 RMK A01 T00650061  RH  097%=      5-min Rain = 0
KBI1 220740Z 35014KT 07/06 A3008 RMK A01 T00650061  RH  097%=      5-min Rain = 0
KBI1 220741Z 35014KT 07/06 A3008 RMK A01 T00650061  RH  097%=      5-min Rain = 0
KBI1 220742Z 35012KT 07/06 A3008 RMK A01 T00650061  RH  097%=      5-min Rain = 0
KBI1 220743Z 35012KT 07/06 A3008 RMK A01 T00650061  RH  097%=      5-min Rain = 0
KBI1 220744Z 35011KT 07/06 A3009 RMK A01 T00650061  RH  097%=      5-min Rain = 0
KBI1 220745Z 36014KT 07/06 A3009 RMK A01 T00650061  RH  097%=      5-min Rain = 0
KBI1 220746Z 35013KT 07/06 A3009 RMK A01 T00650061  RH  097%=      5-min Rain = 0
KBI1 220747Z 36012KT 07/06 A3009 RMK A01 T00650061  RH  097%=      5-min Rain = 0
KBI1 220748Z 00012KT 06/06 A3009 RMK A01 T00640060  RH  097%=      5-min Rain = 0
KBI1 220749Z 00014KT 07/06 A3009 RMK A01 T00650061  RH  097%=      5-min Rain = 0
KBI1 220750Z 36014KT 06/06 A3009 RMK A01 T00640060  RH  097%=      5-min Rain = 0
KBI1 220751Z 00014KT 07/06 A3009 RMK A01 T00650061  RH  097%=      5-min Rain = 0
KBI1 220752Z 36015KT 06/06 A3009 RMK A01 T00640060  RH  097%=      5-min Rain = 0
KBI1 220753Z 36013KT 06/06 A3008 RMK A01 T00640060  RH  097%=      5-min Rain = 0
KBI1 220754Z 00012KT 06/06 A3008 RMK A01 T00630059  RH  097%=      5-min Rain = 0
KBI1 220755Z 00013G18KT 06/06 A3008 RMK A01 T00630058  RH  097%=      5-min Rain = 0
KBI1 220756Z 01012KT 06/06 A3008 RMK A01 T00630058  RH  097%=      5-min Rain = 0
KBI1 220757Z 00009KT 06/06 A3008 RMK A01 T00630059  RH  097%=      5-min Rain = 0
KBI1 220758Z 00010KT 06/06 A3008 RMK A01 T00640060  RH  097%=      5-min Rain = 0
KBI1 220759Z 36013KT 06/06 A3008 RMK A01 T00640060  RH  097%=      5-min Rain = 0
KBI1 220800Z 01010KT 06/06 A3008 RMK A01 T00640059  RH  097%=      5-min Rain = 0
KBI1 220801Z 01010KT 06/06 A3008 RMK A01 T00640059  RH  097%=      5-min Rain = 0
KBI1 220802Z 01012KT 06/06 A3008 RMK A01 T00630059  RH  097%=      5-min Rain = 0
KBI1 220803Z 02008KT 06/06 A3008 RMK A01 T00630059  RH  097%=      5-min Rain = 0
KBI1 220804Z 01011KT 06/06 A3008 RMK A01 T00640059  RH  097%=      5-min Rain = 0
KBI1 220805Z 01010KT 06/06 A3008 RMK A01 T00640060  RH  097%=      5-min Rain = 0
KBI1 220806Z 01010KT 06/06 A3008 RMK A01 T00640060  RH  097%=      5-min Rain = 0
KBI1 220807Z 02012KT 06/06 A3008 RMK A01 T00640059  RH  097%=      5-min Rain = 0
KBI1 220808Z 01010KT 06/06 A3008 RMK A01 T00640060  RH  097%=      5-min Rain = 0
KBI1 220809Z 00013KT 06/06 A3008 RMK A01 T00640060  RH  097%=      5-min Rain = 0
KBI1 220810Z 00011KT 06/06 A3008 RMK A01 T00640060  RH  097%=      5-min Rain = 0
KBI1 220811Z 01013KT 06/06 A3009 RMK A01 T00640060  RH  097%=      5-min Rain = 0
KBI1 220812Z 01013KT 06/06 A3009 RMK A01 T00630059  RH  097%=      5-min Rain = 0
KBI1 220813Z 01012KT 06/06 A3009 RMK A01 T00630058  RH  097%=      5-min Rain = 0
KBI1 220814Z 01011KT 06/06 A3009 RMK A01 T00630059  RH  097%=      5-min Rain = 0
KBI1 220815Z 01014KT 06/06 A3009 RMK A01 T00630059  RH  097%=      5-min Rain = 0
KBI1 220816Z 00010KT 06/06 A3009 RMK A01 T00630059  RH  097%=      5-min Rain = 0
KBI1 220817Z 36012KT 06/06 A3009 RMK A01 T00630059  RH  097%=      5-min Rain = 0
KBI1 220818Z 00012KT 06/06 A3009 RMK A01 T00630059  RH  097%=      5-min Rain = 0
KBI1 220819Z 01011KT 06/06 A3009 RMK A01 T00630058  RH  097%=      5-min Rain = 0
KBI1 220820Z 00010KT 06/06 A3009 RMK A01 T00630059  RH  097%=      5-min Rain = 0
KBI1 220821Z 00011KT 06/06 A3009 RMK A01 T00640059  RH  097%=      5-min Rain = 0
KBI1 220822Z 00010KT 06/06 A3009 RMK A01 T00640059  RH  097%=      5-min Rain = 0
KBI1 220823Z 35010KT 06/06 A3009 RMK A01 T00630059  RH  097%=      5-min Rain = 0
KBI1 220824Z 36010KT 06/06 A301 RMK A01 T00630058  RH  097%=      5-min Rain = 0
KBI1 220825Z 00010KT 06/06 A3009 RMK A01 T00630058  RH  097%=      5-min Rain = 0
KBI1 220826Z 36009KT 06/06 A301 RMK A01 T00630058  RH  097%=      5-min Rain = 0
KBI1 220827Z 36009KT 06/06 A301 RMK A01 T00630058  RH  097%=      5-min Rain = 0
KBI1 220828Z 00011KT 06/06 A301 RMK A01 T00640058  RH  096%=      5-min Rain = 0
KBI1 220829Z 00009KT 06/06 A301 RMK A01 T00630058  RH  096%=      5-min Rain = 0
KBI1 220830Z 00007KT 06/06 A301 RMK A01 T00640058  RH  096%=      5-min Rain = 0
KBI1 220831Z 36009KT 06/06 A301 RMK A01 T00640058  RH  096%=      5-min Rain = 0
KBI1 220832Z 36009KT 06/06 A301 RMK A01 T00640058  RH  096%=      5-min Rain = 0
KBI1 220833Z 35011KT 06/06 A301 RMK A01 T00640058  RH  096%=      5-min Rain = 0
KBI1 220834Z 00010KT 06/06 A301 RMK A01 T00640057  RH  096%=      5-min Rain = 0
KBI1 220835Z 36011KT 06/06 A301 RMK A01 T00630057  RH  096%=      5-min Rain = 0
KBI1 220836Z 36012KT 06/06 A301 RMK A01 T00630057  RH  096%=      5-min Rain = 0
KBI1 220837Z 00012KT 06/06 A301 RMK A01 T00640057  RH  095%=      5-min Rain = 0
KBI1 220838Z 00011KT 06/06 A301 RMK A01 T00630056  RH  095%=      5-min Rain = 0
KBI1 220839Z 00011KT 06/06 A301 RMK A01 T00640056  RH  095%=      5-min Rain = 0
KBI1 220840Z 00012KT 06/06 A301 RMK A01 T00630056  RH  095%=      5-min Rain = 0
KBI1 220841Z 36012KT 06/06 A301 RMK A01 T00630056  RH  095%=      5-min Rain = 0
KBI1 220842Z 36010KT 06/06 A301 RMK A01 T00640056  RH  095%=      5-min Rain = 0
KBI1 220843Z 01012KT 06/06 A301 RMK A01 T00640056  RH  095%=      5-min Rain = 0
KBI1 220844Z 01012KT 06/06 A3009 RMK A01 T00640056  RH  094%=      5-min Rain = 0
KBI1 220845Z 36011KT 06/06 A3009 RMK A01 T00640055  RH  094%=      5-min Rain = 0
KBI1 220846Z 00009KT 06/06 A301 RMK A01 T00640055  RH  094%=      5-min Rain = 0
KBI1 220847Z 35011KT 06/06 A301 RMK A01 T00640056  RH  094%=      5-min Rain = 0
KBI1 220848Z 35013G18KT 06/06 A3009 RMK A01 T00640055  RH  094%=      5-min Rain = 0
KBI1 220849Z 35011KT 06/06 A3009 RMK A01 T00640055  RH  094%=      5-min Rain = 0
KBI1 220850Z 35014KT 06/05 A3009 RMK A01 T00640054  RH  093%=      5-min Rain = 0
KBI1 220851Z 36013KT 06/05 A3009 RMK A01 T00640054  RH  093%=      5-min Rain = 0
KBI1 220852Z 36009KT 06/05 A3009 RMK A01 T00640054  RH  093%=      5-min Rain = 0
KBI1 220853Z 36011KT 06/05 A3009 RMK A01 T00640054  RH  093%=      5-min Rain = 0
KBI1 220854Z 36010KT 06/05 A3009 RMK A01 T00640054  RH  093%=      5-min Rain = 0
KBI1 220855Z 36009KT 06/06 A3009 RMK A01 T00640055  RH  093%=      5-min Rain = 0
KBI1 220856Z 00011KT 07/06 A3009 RMK A01 T00650055  RH  093%=      5-min Rain = 0
KBI1 220857Z 00011KT 07/06 A3009 RMK A01 T00650055  RH  093%=      5-min Rain = 0
KBI1 220858Z 36010KT 07/06 A3009 RMK A01 T00650055  RH  093%=      5-min Rain = 0
KBI1 220859Z 36009KT 07/05 A3009 RMK A01 T00650054  RH  093%=      5-min Rain = 0
KBI1 220900Z 00007KT 07/06 A3009 RMK A01 T00650055  RH  093%=      5-min Rain = 0
KBI1 220901Z 00010KT 07/06 A3009 RMK A01 T00660056  RH  093%=      5-min Rain = 0
KBI1 220902Z 36011KT 07/06 A3009 RMK A01 T00660055  RH  093%=      5-min Rain = 0
KBI1 220903Z 00012KT 07/06 A3009 RMK A01 T00660055  RH  093%=      5-min Rain = 0
KBI1 220904Z 36011KT 07/05 A3009 RMK A01 T00650054  RH  092%=      5-min Rain = 0
KBI1 220905Z 36011KT 07/05 A3009 RMK A01 T00650054  RH  092%=      5-min Rain = 0
KBI1 220906Z 00009KT 07/05 A3009 RMK A01 T00650054  RH  092%=      5-min Rain = 0
KBI1 220907Z 00008KT 07/05 A3009 RMK A01 T00650053  RH  092%=      5-min Rain = 0
KBI1 220908Z 01009KT 07/05 A301 RMK A01 T00650054  RH  092%=      5-min Rain = 0
KBI1 220909Z 36011KT 07/05 A301 RMK A01 T00660054  RH  092%=      5-min Rain = 0
KBI1 220910Z 00012KT 07/05 A301 RMK A01 T00660053  RH  092%=      5-min Rain = 0
KBI1 220911Z 00011KT 07/05 A3009 RMK A01 T00660053  RH  092%=      5-min Rain = 0
KBI1 220912Z 36010KT 07/05 A3009 RMK A01 T00660053  RH  092%=      5-min Rain = 0
KBI1 220913Z 36011KT 07/05 A3009 RMK A01 T00660053  RH  092%=      5-min Rain = 0
KBI1 220914Z 35012KT 07/05 A3009 RMK A01 T00660053  RH  092%=      5-min Rain = 0
KBI1 220915Z 35012KT 07/05 A3009 RMK A01 T00650052  RH  091%=      5-min Rain = 0
KBI1 220916Z 36012KT 07/05 A3009 RMK A01 T00650051  RH  091%=      5-min Rain = 0
KBI1 220917Z 36013KT 07/05 A301 RMK A01 T00650051  RH  091%=      5-min Rain = 0
KBI1 220918Z 00011KT 07/05 A301 RMK A01 T00650051  RH  091%=      5-min Rain = 0
KBI1 220919Z 36012KT 06/05 A301 RMK A01 T00640050  RH  091%=      5-min Rain = 0
KBI1 220920Z 00011KT 06/05 A301 RMK A01 T00640050  RH  091%=      5-min Rain = 0
KBI1 220921Z 36011KT 06/05 A3009 RMK A01 T00640050  RH  091%=      5-min Rain = 0
KBI1 220922Z 36010KT 06/05 A3009 RMK A01 T00640050  RH  091%=      5-min Rain = 0
KBI1 220923Z 35010KT 06/05 A301 RMK A01 T00640050  RH  091%=      5-min Rain = 0
KBI1 220924Z 00010KT 06/05 A3009 RMK A01 T00640050  RH  091%=      5-min Rain = 0
KBI1 220925Z 00009KT 06/05 A3009 RMK A01 T00640049  RH  091%=      5-min Rain = 0
KBI1 220926Z 00011KT 06/05 A3009 RMK A01 T00640049  RH  091%=      5-min Rain = 0
KBI1 220927Z 01009KT 06/05 A3009 RMK A01 T00640049  RH  091%=      5-min Rain = 0
KBI1 220928Z 00011KT 06/05 A3009 RMK A01 T00630049  RH  091%=      5-min Rain = 0
KBI1 220929Z 01010KT 06/05 A3009 RMK A01 T00640050  RH  091%=      5-min Rain = 0
KBI1 220930Z 01009KT 06/05 A3009 RMK A01 T00630049  RH  091%=      5-min Rain = 0
KBI1 220931Z 01010KT 06/05 A3009 RMK A01 T00640050  RH  091%=      5-min Rain = 0
KBI1 220932Z 00009KT 06/05 A3009 RMK A01 T00630049  RH  091%=      5-min Rain = 0
KBI1 220933Z 00009KT 06/05 A3009 RMK A01 T00630049  RH  091%=      5-min Rain = 0
KBI1 220934Z 01010KT 06/05 A3009 RMK A01 T00630049  RH  091%=      5-min Rain = 0
KBI1 220935Z 01010KT 06/05 A3009 RMK A01 T00630049  RH  091%=      5-min Rain = 0
KBI1 220936Z 00009KT 06/05 A3009 RMK A01 T00630049  RH  091%=      5-min Rain = 0
KBI1 220937Z 00010KT 06/05 A3009 RMK A01 T00620048  RH  091%=      5-min Rain = 0
KBI1 220938Z 01010KT 06/05 A3009 RMK A01 T00620048  RH  091%=      5-min Rain = 0
KBI1 220939Z 01010KT 06/05 A3009 RMK A01 T00620048  RH  091%=      5-min Rain = 0
KBI1 220940Z 00008KT 06/05 A3009 RMK A01 T00620048  RH  091%=      5-min Rain = 0
KBI1 220941Z 00010KT 06/05 A3009 RMK A01 T00620047  RH  091%=      5-min Rain = 0
KBI1 220942Z 00009KT 06/05 A3009 RMK A01 T00610047  RH  091%=      5-min Rain = 0
KBI1 220943Z 36009KT 06/05 A3009 RMK A01 T00620047  RH  091%=      5-min Rain = 0
KBI1 220944Z 00009KT 06/05 A3009 RMK A01 T00610047  RH  091%=      5-min Rain = 0
KBI1 220945Z 00008KT 06/05 A3009 RMK A01 T00610047  RH  091%=      5-min Rain = 0
KBI1 220946Z 36007KT 06/05 A3009 RMK A01 T00610047  RH  091%=      5-min Rain = 0
KBI1 220947Z 00007KT 06/05 A3009 RMK A01 T00600047  RH  091%=      5-min Rain = 0
KBI1 220948Z 01008KT 06/05 A3009 RMK A01 T00600047  RH  091%=      5-min Rain = 0
KBI1 220949Z 00009KT 06/05 A3009 RMK A01 T00600047  RH  091%=      5-min Rain = 0
KBI1 220950Z 00008KT 06/05 A3009 RMK A01 T00600047  RH  091%=      5-min Rain = 0
KBI1 220951Z 36009KT 06/05 A3009 RMK A01 T00600047  RH  091%=      5-min Rain = 0
KBI1 220952Z 01009KT 06/05 A3009 RMK A01 T00600047  RH  091%=      5-min Rain = 0
KBI1 220953Z 00008KT 06/05 A3009 RMK A01 T00600047  RH  091%=      5-min Rain = 0
KBI1 220954Z 00009KT 06/05 A3009 RMK A01 T00600046  RH  091%=      5-min Rain = 0
KBI1 220955Z 00009KT 06/05 A3009 RMK A01 T00590046  RH  091%=      5-min Rain = 0
KBI1 220956Z 36009KT 06/05 A3009 RMK A01 T00590046  RH  091%=      5-min Rain = 0
KBI1 220957Z 35009KT 06/05 A3009 RMK A01 T00590046  RH  091%=      5-min Rain = 0
KBI1 220958Z 36009KT 06/05 A3009 RMK A01 T00590046  RH  091%=      5-min Rain = 0
KBI1 220959Z 36010KT 06/05 A3009 RMK A01 T00580046  RH  091%=      5-min Rain = 0
KBI1 221000Z 36009KT 06/05 A3009 RMK A01 T00580046  RH  091%=      5-min Rain = 0
KBI1 221001Z 00010KT 06/05 A3009 RMK A01 T00580045  RH  091%=      5-min Rain = 0
KBI1 221002Z 36010KT 06/05 A3009 RMK A01 T00580045  RH  091%=      5-min Rain = 0
KBI1 221003Z 35010KT 06/05 A3009 RMK A01 T00580045  RH  091%=      5-min Rain = 0
KBI1 221004Z 35009KT 06/05 A3009 RMK A01 T00580045  RH  091%=      5-min Rain = 0
KBI1 221005Z 35008KT 06/05 A3009 RMK A01 T00590045  RH  091%=      5-min Rain = 0
KBI1 221006Z 36007KT 06/05 A3009 RMK A01 T00590045  RH  091%=      5-min Rain = 0
KBI1 221007Z 35008KT 06/05 A3009 RMK A01 T00580045  RH  091%=      5-min Rain = 0
KBI1 221008Z 35008KT 06/05 A3009 RMK A01 T00580045  RH  091%=      5-min Rain = 0
KBI1 221009Z 35008KT 06/05 A3009 RMK A01 T00580045  RH  092%=      5-min Rain = 0
KBI1 221010Z 34008KT 06/05 A3009 RMK A01 T00580045  RH  092%=      5-min Rain = 0
KBI1 221011Z 35008KT 06/05 A3009 RMK A01 T00570045  RH  092%=      5-min Rain = 0
KBI1 221012Z 35009KT 06/05 A301 RMK A01 T00580045  RH  092%=      5-min Rain = 0
KBI1 221013Z 35008KT 06/05 A301 RMK A01 T00580045  RH  092%=      5-min Rain = 0
KBI1 221014Z 35007KT 06/05 A3009 RMK A01 T00570045  RH  092%=      5-min Rain = 0
KBI1 221015Z 35006KT 06/04 A301 RMK A01 T00570044  RH  092%=      5-min Rain = 0
KBI1 221016Z 36006KT 06/04 A301 RMK A01 T00560044  RH  092%=      5-min Rain = 0
KBI1 221017Z 36007KT 06/04 A301 RMK A01 T00560044  RH  092%=      5-min Rain = 0
KBI1 221018Z 36006KT 06/04 A301 RMK A01 T00560044  RH  092%=      5-min Rain = 0
KBI1 221019Z 36005KT 06/04 A301 RMK A01 T00560044  RH  092%=      5-min Rain = 0
KBI1 221020Z 36006KT 06/04 A301 RMK A01 T00560044  RH  092%=      5-min Rain = 0
KBI1 221021Z 35006KT 06/04 A301 RMK A01 T00560044  RH  092%=      5-min Rain = 0
KBI1 221022Z 35006KT 06/04 A301 RMK A01 T00560044  RH  092%=      5-min Rain = 0
KBI1 221023Z 35007KT 06/04 A301 RMK A01 T00560044  RH  092%=      5-min Rain = 0
KBI1 221024Z 35006KT 06/04 A301 RMK A01 T00560044  RH  092%=      5-min Rain = 0
KBI1 221025Z 36006KT 06/04 A301 RMK A01 T00560044  RH  092%=      5-min Rain = 0
KBI1 221026Z 36005KT 06/04 A3009 RMK A01 T00550044  RH  092%=      5-min Rain = 0
KBI1 221027Z 00007KT 06/04 A3009 RMK A01 T00550044  RH  093%=      5-min Rain = 0
KBI1 221028Z 00007KT 06/04 A3009 RMK A01 T00550044  RH  093%=      5-min Rain = 0
KBI1 221029Z 36007KT 06/04 A3009 RMK A01 T00550044  RH  093%=      5-min Rain = 0
KBI1 221030Z 36006KT 06/04 A301 RMK A01 T00550044  RH  093%=      5-min Rain = 0
KBI1 221031Z 36006KT 06/04 A301 RMK A01 T00550044  RH  093%=      5-min Rain = 0
KBI1 221032Z 36006KT 05/04 A301 RMK A01 T00540044  RH  093%=      5-min Rain = 0
KBI1 221033Z 36006KT 05/04 A3009 RMK A01 T00540044  RH  093%=      5-min Rain = 0
KBI1 221034Z 36006KT 05/04 A3009 RMK A01 T00540043  RH  093%=      5-min Rain = 0
KBI1 221035Z 36006KT 05/04 A3009 RMK A01 T00530043  RH  093%=      5-min Rain = 0
KBI1 221036Z 00006KT 05/04 A3009 RMK A01 T00540044  RH  093%=      5-min Rain = 0
KBI1 221037Z 36005KT 05/04 A3009 RMK A01 T00540044  RH  093%=      5-min Rain = 0
KBI1 221038Z 36006KT 05/04 A3009 RMK A01 T00540044  RH  093%=      5-min Rain = 0
KBI1 221039Z 00005KT 05/04 A3009 RMK A01 T00530044  RH  093%=      5-min Rain = 0
KBI1 221040Z 36005KT 05/04 A3009 RMK A01 T00540044  RH  094%=      5-min Rain = 0
KBI1 221041Z 00005KT 05/04 A3009 RMK A01 T00530044  RH  094%=      5-min Rain = 0
KBI1 221042Z 01004KT 05/04 A3009 RMK A01 T00530043  RH  094%=      5-min Rain = 0
KBI1 221043Z 01006KT 05/04 A3009 RMK A01 T00530044  RH  094%=      5-min Rain = 0
KBI1 221044Z 01005KT 05/04 A3009 RMK A01 T00530044  RH  094%=      5-min Rain = 0
KBI1 221045Z 02005KT 05/04 A3009 RMK A01 T00530043  RH  094%=      5-min Rain = 0
KBI1 221046Z 01004KT 05/04 A3009 RMK A01 T00530044  RH  094%=      5-min Rain = 0
KBI1 221047Z 02004KT 05/04 A3009 RMK A01 T00530043  RH  094%=      5-min Rain = 0
KBI1 221048Z 02005KT 05/04 A3009 RMK A01 T00530044  RH  094%=      5-min Rain = 0
KBI1 221049Z 02006KT 05/04 A3009 RMK A01 T00530044  RH  094%=      5-min Rain = 0
KBI1 221050Z 02005KT 05/04 A301 RMK A01 T00530044  RH  094%=      5-min Rain = 0
KBI1 221051Z 02004KT 05/04 A301 RMK A01 T00530044  RH  094%=      5-min Rain = 0
KBI1 221052Z 02004KT 05/04 A301 RMK A01 T00530044  RH  094%=      5-min Rain = 0
KBI1 221053Z 03004KT 05/04 A3009 RMK A01 T00540044  RH  094%=      5-min Rain = 0
KBI1 221054Z 02005KT 05/04 A3009 RMK A01 T00530044  RH  094%=      5-min Rain = 0
KBI1 221055Z 02005KT 05/04 A3009 RMK A01 T00530043  RH  094%=      5-min Rain = 0
KBI1 221056Z 02004KT 05/04 A301 RMK A01 T00530043  RH  094%=      5-min Rain = 0
KBI1 221057Z 02004KT 05/04 A301 RMK A01 T00530044  RH  094%=      5-min Rain = 0
KBI1 221058Z 03004KT 05/04 A301 RMK A01 T00530044  RH  094%=      5-min Rain = 0
KBI1 221059Z 03004KT 05/04 A301 RMK A01 T00530043  RH  094%=      5-min Rain = 0
KBI1 221100Z 02005KT 05/04 A301 RMK A01 T00520043  RH  094%=      5-min Rain = 0
KBI1 221101Z 02005KT 05/04 A301 RMK A01 T00530043  RH  094%=      5-min Rain = 0
KBI1 221102Z 02004KT 05/04 A301 RMK A01 T00520043  RH  094%=      5-min Rain = 0
KBI1 221103Z 03005KT 05/04 A301 RMK A01 T00520043  RH  094%=      5-min Rain = 0
KBI1 221104Z 03005KT 05/04 A301 RMK A01 T00520043  RH  094%=      5-min Rain = 0
KBI1 221105Z 03005KT 05/04 A301 RMK A01 T00530044  RH  094%=      5-min Rain = 0
KBI1 221106Z 03005KT 05/04 A301 RMK A01 T00530044  RH  094%=      5-min Rain = 0
KBI1 221107Z 02004KT 05/04 A301 RMK A01 T00530044  RH  094%=      5-min Rain = 0
KBI1 221108Z 02005KT 05/04 A301 RMK A01 T00520043  RH  094%=      5-min Rain = 0
KBI1 221109Z 02005KT 05/04 A301 RMK A01 T00530044  RH  094%=      5-min Rain = 0
KBI1 221110Z 01004KT 05/04 A301 RMK A01 T00520043  RH  094%=      5-min Rain = 0
KBI1 221111Z 00004KT 05/04 A301 RMK A01 T00520043  RH  094%=      5-min Rain = 0
KBI1 221112Z 00004KT 05/04 A301 RMK A01 T00520043  RH  094%=      5-min Rain = 0
KBI1 221113Z 01004KT 05/04 A301 RMK A01 T00520043  RH  094%=      5-min Rain = 0
KBI1 221114Z 36003KT 05/04 A301 RMK A01 T00510043  RH  094%=      5-min Rain = 0
KBI1 221115Z 35003KT 05/04 A301 RMK A01 T00510043  RH  094%=      5-min Rain = 0
KBI1 221116Z 01003KT 05/04 A301 RMK A01 T00510043  RH  094%=      5-min Rain = 0
KBI1 221117Z 02004KT 05/04 A301 RMK A01 T00510042  RH  094%=      5-min Rain = 0
KBI1 221118Z 35003KT 05/04 A301 RMK A01 T00500042  RH  094%=      5-min Rain = 0
KBI1 221119Z 34003KT 05/04 A301 RMK A01 T00500042  RH  094%=      5-min Rain = 0
KBI1 221120Z 00003KT 05/04 A301 RMK A01 T00500041  RH  094%=      5-min Rain = 0
KBI1 221121Z 00004KT 05/04 A301 RMK A01 T00500041  RH  094%=      5-min Rain = 0
KBI1 221122Z 35003KT 05/04 A301 RMK A01 T00500042  RH  094%=      5-min Rain = 0
KBI1 221123Z 35004KT 05/04 A301 RMK A01 T00490041  RH  094%=      5-min Rain = 0
KBI1 221124Z 36004KT 05/04 A301 RMK A01 T00490040  RH  094%=      5-min Rain = 0
KBI1 221125Z 35003KT 05/04 A301 RMK A01 T00480039  RH  094%=      5-min Rain = 0
KBI1 221126Z 35004KT 05/04 A301 RMK A01 T00470039  RH  094%=      5-min Rain = 0
KBI1 221127Z 34004KT 05/04 A301 RMK A01 T00470039  RH  094%=      5-min Rain = 0
KBI1 221128Z 35003KT 05/04 A301 RMK A01 T00470039  RH  095%=      5-min Rain = 0
KBI1 221129Z 35004KT 05/04 A301 RMK A01 T00470039  RH  095%=      5-min Rain = 0
KBI1 221130Z 34005KT 05/04 A301 RMK A01 T00460038  RH  095%=      5-min Rain = 0
KBI1 221131Z 35005KT 05/04 A301 RMK A01 T00460039  RH  095%=      5-min Rain = 0
KBI1 221132Z 35004KT 05/04 A301 RMK A01 T00460038  RH  095%=      5-min Rain = 0
KBI1 221133Z 34005KT 05/04 A301 RMK A01 T00460038  RH  095%=      5-min Rain = 0
KBI1 221134Z 34004KT 05/04 A301 RMK A01 T00460038  RH  095%=      5-min Rain = 0
KBI1 221135Z 34004KT 05/04 A301 RMK A01 T00450037  RH  095%=      5-min Rain = 0
KBI1 221136Z 35004KT 05/04 A301 RMK A01 T00450037  RH  095%=      5-min Rain = 0
KBI1 221137Z 35004KT 04/04 A301 RMK A01 T00440037  RH  095%=      5-min Rain = 0
KBI1 221138Z 34005KT 04/04 A301 RMK A01 T00440037  RH  095%=      5-min Rain = 0
KBI1 221139Z 34004KT 04/04 A301 RMK A01 T00440037  RH  095%=      5-min Rain = 0
KBI1 221140Z 36004KT 04/04 A301 RMK A01 T00440037  RH  095%=      5-min Rain = 0
KBI1 221141Z 36004KT 04/04 A301 RMK A01 T00440037  RH  095%=      5-min Rain = 0
KBI1 221142Z 35003KT 04/04 A301 RMK A01 T00440038  RH  095%=      5-min Rain = 0
KBI1 221143Z 34003KT 04/04 A301 RMK A01 T00440038  RH  095%=      5-min Rain = 0
KBI1 221144Z 34003KT 04/04 A301 RMK A01 T00440037  RH  095%=      5-min Rain = 0
KBI1 221145Z 00004KT 04/04 A301 RMK A01 T00440037  RH  095%=      5-min Rain = 0
KBI1 221146Z 00004KT 04/04 A301 RMK A01 T00430037  RH  096%=      5-min Rain = 0
KBI1 221147Z 35004KT 04/04 A301 RMK A01 T00430037  RH  096%=      5-min Rain = 0
KBI1 221148Z 35004KT 04/04 A301 RMK A01 T00430037  RH  096%=      5-min Rain = 0
KBI1 221149Z 36004KT 04/04 A301 RMK A01 T00420036  RH  096%=      5-min Rain = 0
KBI1 221150Z 36004KT 04/04 A301 RMK A01 T00430036  RH  096%=      5-min Rain = 0
KBI1 221151Z 35004KT 04/04 A301 RMK A01 T00420036  RH  096%=      5-min Rain = 0
KBI1 221152Z 35005KT 04/04 A301 RMK A01 T00420036  RH  096%=      5-min Rain = 0
KBI1 221153Z 35005KT 04/04 A301 RMK A01 T00420036  RH  096%=      5-min Rain = 0
KBI1 221154Z 35005KT 04/04 A301 RMK A01 T00420036  RH  096%=      5-min Rain = 0
KBI1 221155Z 35005KT 04/04 A301 RMK A01 T00420036  RH  096%=      5-min Rain = 0
KBI1 221156Z 35004KT 04/04 A301 RMK A01 T00420036  RH  096%=      5-min Rain = 0
KBI1 221157Z 35004KT 04/04 A301 RMK A01 T00420035  RH  096%=      5-min Rain = 0
KBI1 221158Z 35004KT 04/04 A301 RMK A01 T00410035  RH  096%=      5-min Rain = 0
KBI1 221159Z 35004KT 04/03 A301 RMK A01 T00410034  RH  096%=      5-min Rain = 0
KBI1 221200Z 35004KT 04/03 A301 RMK A01 T00410034  RH  096%=      5-min Rain = 0
KBI1 221201Z 35004KT 04/04 A301 RMK A01 T00410035  RH  096%=      5-min Rain = 0
KBI1 221202Z 35004KT 04/03 A301 RMK A01 T00400034  RH  096%=      5-min Rain = 0
KBI1 221203Z 35004KT 04/03 A301 RMK A01 T00400034  RH  096%=      5-min Rain = 0
KBI1 221204Z 35004KT 04/03 A301 RMK A01 T00400034  RH  096%=      5-min Rain = 0
KBI1 221205Z 35004KT 04/03 A301 RMK A01 T00400034  RH  096%=      5-min Rain = 0
KBI1 221206Z 35004KT 04/03 A301 RMK A01 T00400034  RH  096%=      5-min Rain = 0
KBI1 221207Z 35004KT 04/03 A301 RMK A01 T00390034  RH  096%=      5-min Rain = 0
KBI1 221208Z 35004KT 04/03 A301 RMK A01 T00390033  RH  096%=      5-min Rain = 0
KBI1 221209Z 35004KT 04/03 A301 RMK A01 T00390033  RH  096%=      5-min Rain = 0
KBI1 221210Z 35004KT 04/03 A301 RMK A01 T00390033  RH  096%=      5-min Rain = 0
KBI1 221211Z 35004KT 04/03 A301 RMK A01 T00380033  RH  096%=      5-min Rain = 0
KBI1 221212Z 35003KT 04/03 A301 RMK A01 T00390033  RH  096%=      5-min Rain = 0
KBI1 221213Z 34003KT 04/03 A3011 RMK A01 T00390033  RH  096%=      5-min Rain = 0
KBI1 221214Z 35003KT 04/03 A3011 RMK A01 T00390033  RH  096%=      5-min Rain = 0
KBI1 221215Z 35003KT 04/03 A3011 RMK A01 T00390033  RH  096%=      5-min Rain = 0
KBI1 221216Z 35004KT 04/03 A3011 RMK A01 T00390034  RH  096%=      5-min Rain = 0
KBI1 221217Z 34004KT 04/03 A3011 RMK A01 T00390033  RH  096%=      5-min Rain = 0
KBI1 221218Z 34004KT 04/03 A3011 RMK A01 T00390033  RH  096%=      5-min Rain = 0
KBI1 221219Z 35004KT 04/03 A3011 RMK A01 T00390033  RH  096%=      5-min Rain = 0
KBI1 221220Z 35004KT 04/03 A3011 RMK A01 T00390033  RH  096%=      5-min Rain = 0
KBI1 221221Z 36005KT 04/03 A3011 RMK A01 T00380033  RH  096%=      5-min Rain = 0
KBI1 221222Z 35005KT 04/03 A3011 RMK A01 T00380033  RH  096%=      5-min Rain = 0
KBI1 221223Z 36005KT 04/03 A3011 RMK A01 T00380033  RH  096%=      5-min Rain = 0
KBI1 221224Z 34005KT 04/03 A3011 RMK A01 T00380033  RH  097%=      5-min Rain = 0
KBI1 221225Z 35005KT 04/03 A3011 RMK A01 T00380033  RH  097%=      5-min Rain = 0
KBI1 221226Z 35005KT 04/03 A3011 RMK A01 T00370032  RH  096%=      5-min Rain = 0
KBI1 221227Z 34005KT 04/03 A3011 RMK A01 T00380033  RH  097%=      5-min Rain = 0
KBI1 221228Z 35005KT 04/03 A3012 RMK A01 T00370033  RH  097%=      5-min Rain = 0
KBI1 221229Z 35005KT 04/03 A3012 RMK A01 T00370032  RH  097%=      5-min Rain = 0
KBI1 221230Z 35005KT 04/03 A3012 RMK A01 T00370032  RH  097%=      5-min Rain = 0
KBI1 221231Z 35005KT 04/03 A3012 RMK A01 T00370033  RH  097%=      5-min Rain = 0
KBI1 221232Z 35005KT 04/03 A3012 RMK A01 T00380033  RH  097%=      5-min Rain = 0
KBI1 221233Z 36005KT 04/03 A3012 RMK A01 T00380033  RH  097%=      5-min Rain = 0
KBI1 221234Z 35006KT 04/03 A3012 RMK A01 T00380033  RH  097%=      5-min Rain = 0
KBI1 221235Z 35006KT 04/03 A3012 RMK A01 T00380033  RH  097%=      5-min Rain = 0
KBI1 221236Z 35006KT 04/03 A3012 RMK A01 T00380033  RH  097%=      5-min Rain = 0
KBI1 221237Z 35007KT 04/03 A3012 RMK A01 T00370033  RH  097%=      5-min Rain = 0
KBI1 221238Z 35007KT 04/03 A3012 RMK A01 T00380033  RH  097%=      5-min Rain = 0
KBI1 221239Z 35007KT 04/03 A3012 RMK A01 T00380033  RH  097%=      5-min Rain = 0
KBI1 221240Z 35007KT 04/03 A3012 RMK A01 T00380033  RH  097%=      5-min Rain = 0
KBI1 221241Z 35006KT 04/03 A3012 RMK A01 T00380033  RH  097%=      5-min Rain = 0
KBI1 221242Z 34006KT 04/03 A3012 RMK A01 T00380033  RH  097%=      5-min Rain = 0
KBI1 221243Z 34006KT 04/03 A3012 RMK A01 T00380033  RH  097%=      5-min Rain = 0
KBI1 221244Z 34006KT 04/03 A3012 RMK A01 T00380033  RH  097%=      5-min Rain = 0
KBI1 221245Z 34007KT 04/03 A3012 RMK A01 T00380033  RH  097%=      5-min Rain = 0
KBI1 221246Z 34006KT 04/03 A3012 RMK A01 T00380033  RH  097%=      5-min Rain = 0
KBI1 221247Z 34005KT 04/03 A3012 RMK A01 T00380033  RH  097%=      5-min Rain = 0
KBI1 221248Z 34005KT 04/03 A3012 RMK A01 T00380033  RH  097%=      5-min Rain = 0
KBI1 221249Z 34006KT 04/03 A3013 RMK A01 T00370032  RH  097%=      5-min Rain = 0
KBI1 221250Z 34007KT 04/03 A3013 RMK A01 T00370032  RH  097%=      5-min Rain = 0
KBI1 221251Z 34005KT 04/03 A3013 RMK A01 T00360032  RH  097%=      5-min Rain = 0
KBI1 221252Z 34006KT 04/03 A3013 RMK A01 T00360031  RH  097%=      5-min Rain = 0
KBI1 221253Z 34006KT 04/03 A3013 RMK A01 T00360031  RH  097%=      5-min Rain = 0
KBI1 221254Z 34006KT 04/03 A3013 RMK A01 T00360031  RH  097%=      5-min Rain = 0
KBI1 221255Z 33005KT 04/03 A3013 RMK A01 T00360031  RH  097%=      5-min Rain = 0
KBI1 221256Z 33005KT 04/03 A3013 RMK A01 T00360031  RH  097%=      5-min Rain = 0
KBI1 221257Z 34004KT 04/03 A3013 RMK A01 T00350031  RH  097%=      5-min Rain = 0
KBI1 221258Z 34005KT 04/03 A3013 RMK A01 T00350031  RH  097%=      5-min Rain = 0
KBI1 221259Z 34005KT 04/03 A3013 RMK A01 T00350031  RH  097%=      5-min Rain = 0
KBI1 221300Z 34005KT 04/03 A3013 RMK A01 T00360031  RH  097%=      5-min Rain = 0
KBI1 221301Z 34005KT 04/03 A3013 RMK A01 T00360031  RH  097%=      5-min Rain = 0
KBI1 221302Z 35005KT 04/03 A3013 RMK A01 T00360032  RH  097%=      5-min Rain = 0
KBI1 221303Z 35006KT 04/03 A3013 RMK A01 T00370033  RH  097%=      5-min Rain = 0
KBI1 221304Z 35006KT 04/03 A3013 RMK A01 T00380034  RH  097%=      5-min Rain = 0
KBI1 221305Z 36005KT 04/04 A3013 RMK A01 T00390035  RH  097%=      5-min Rain = 0
KBI1 221306Z 00006KT 04/04 A3013 RMK A01 T00390035  RH  097%=      5-min Rain = 0
KBI1 221307Z 36006KT 04/04 A3013 RMK A01 T00390035  RH  097%=      5-min Rain = 0
KBI1 221308Z 36007KT 04/04 A3013 RMK A01 T00400036  RH  097%=      5-min Rain = 0
KBI1 221309Z 35007KT 04/04 A3013 RMK A01 T00400036  RH  097%=      5-min Rain = 0
KBI1 221310Z 00007KT 04/04 A3013 RMK A01 T00410037  RH  097%=      5-min Rain = 0
KBI1 221311Z 00006KT 04/04 A3013 RMK A01 T00420037  RH  097%=      5-min Rain = 0
KBI1 221312Z 00005KT 04/04 A3013 RMK A01 T00420038  RH  097%=      5-min Rain = 0
KBI1 221313Z 36007KT 04/04 A3013 RMK A01 T00420037  RH  097%=      5-min Rain = 0
KBI1 221314Z 00007KT 04/04 A3013 RMK A01 T00420038  RH  097%=      5-min Rain = 0
KBI1 221315Z 36006KT 04/04 A3013 RMK A01 T00430039  RH  097%=      5-min Rain = 0
KBI1 221316Z 36006KT 04/04 A3013 RMK A01 T00430038  RH  097%=      5-min Rain = 0
KBI1 221317Z 36006KT 04/04 A3013 RMK A01 T00430038  RH  097%=      5-min Rain = 0
KBI1 221318Z 35006KT 04/04 A3013 RMK A01 T00430038  RH  097%=      5-min Rain = 0
KBI1 221319Z 36007KT 04/04 A3013 RMK A01 T00430038  RH  097%=      5-min Rain = 0
KBI1 221320Z 35006KT 04/04 A3013 RMK A01 T00430038  RH  097%=      5-min Rain = 0
KBI1 221321Z 34006KT 04/04 A3014 RMK A01 T00430038  RH  097%=      5-min Rain = 0
KBI1 221322Z 34005KT 04/04 A3014 RMK A01 T00430038  RH  096%=      5-min Rain = 0
KBI1 221323Z 34005KT 04/04 A3014 RMK A01 T00420036  RH  096%=      5-min Rain = 0
KBI1 221324Z 33006KT 04/04 A3014 RMK A01 T00410035  RH  096%=      5-min Rain = 0
KBI1 221325Z 33007KT 04/04 A3014 RMK A01 T00400035  RH  096%=      5-min Rain = 0
KBI1 221326Z 33006KT 04/03 A3014 RMK A01 T00400034  RH  096%=      5-min Rain = 0
KBI1 221327Z 33006KT 04/03 A3014 RMK A01 T00390034  RH  096%=      5-min Rain = 0
KBI1 221328Z 34006KT 04/03 A3014 RMK A01 T00390034  RH  096%=      5-min Rain = 0
KBI1 221329Z 34005KT 04/03 A3014 RMK A01 T00390033  RH  096%=      5-min Rain = 0
KBI1 221330Z 34005KT 04/03 A3014 RMK A01 T00390034  RH  096%=      5-min Rain = 0
KBI1 221331Z 34006KT 04/03 A3015 RMK A01 T00390034  RH  097%=      5-min Rain = 0
KBI1 221332Z 34007KT 04/03 A3015 RMK A01 T00390034  RH  097%=      5-min Rain = 0
KBI1 221333Z 34006KT 04/04 A3015 RMK A01 T00400035  RH  097%=      5-min Rain = 0
KBI1 221334Z 34005KT 04/04 A3015 RMK A01 T00400035  RH  097%=      5-min Rain = 0
KBI1 221335Z 35005KT 04/04 A3015 RMK A01 T00400035  RH  097%=      5-min Rain = 0
KBI1 221336Z 34006KT 04/04 A3015 RMK A01 T00410036  RH  097%=      5-min Rain = 0
KBI1 221337Z 34005KT 04/04 A3015 RMK A01 T00410036  RH  097%=      5-min Rain = 0
KBI1 221338Z 34005KT 04/04 A3015 RMK A01 T00400036  RH  097%=      5-min Rain = 0
KBI1 221339Z 35005KT 04/04 A3015 RMK A01 T00410036  RH  097%=      5-min Rain = 0
KBI1 221340Z 35006KT 04/04 A3015 RMK A01 T00410036  RH  097%=      5-min Rain = 0
KBI1 221341Z 35007KT 04/04 A3015 RMK A01 T00410036  RH  097%=      5-min Rain = 0
KBI1 221342Z 35006KT 04/04 A3015 RMK A01 T00410037  RH  097%=      5-min Rain = 0
KBI1 221343Z 35007KT 04/04 A3015 RMK A01 T00420037  RH  097%=      5-min Rain = 0
KBI1 221344Z 35006KT 04/04 A3015 RMK A01 T00420037  RH  097%=      5-min Rain = 0
KBI1 221345Z 34006KT 04/04 A3015 RMK A01 T00420038  RH  097%=      5-min Rain = 0
KBI1 221346Z 34007KT 04/04 A3015 RMK A01 T00420038  RH  097%=      5-min Rain = 0
KBI1 221347Z 34006KT 04/04 A3016 RMK A01 T00420037  RH  097%=      5-min Rain = 0
KBI1 221348Z 34006KT 04/04 A3016 RMK A01 T00430038  RH  097%=      5-min Rain = 0
KBI1 221349Z 34007KT 04/04 A3016 RMK A01 T00420038  RH  097%=      5-min Rain = 0
KBI1 221350Z 33007KT 04/04 A3016 RMK A01 T00430038  RH  097%=      5-min Rain = 0
KBI1 221351Z 34007KT 04/04 A3016 RMK A01 T00430038  RH  097%=      5-min Rain = 0
KBI1 221352Z 34007KT 04/04 A3016 RMK A01 T00430038  RH  097%=      5-min Rain = 0
KBI1 221353Z 34007KT 04/04 A3016 RMK A01 T00430039  RH  097%=      5-min Rain = 0
KBI1 221354Z 34008KT 04/04 A3016 RMK A01 T00440039  RH  097%=      5-min Rain = 0
KBI1 221355Z 35007KT 04/04 A3016 RMK A01 T00440039  RH  097%=      5-min Rain = 0
KBI1 221356Z 35008KT 04/04 A3016 RMK A01 T00440039  RH  097%=      5-min Rain = 0
KBI1 221357Z 34009KT 04/04 A3016 RMK A01 T00440039  RH  097%=      5-min Rain = 0
KBI1 221358Z 35008KT 04/04 A3016 RMK A01 T00440039  RH  097%=      5-min Rain = 0
KBI1 221359Z 35009KT 04/04 A3016 RMK A01 T00440039  RH  097%=      5-min Rain = 0
KBI1 221400Z 35008KT 04/04 A3016 RMK A01 T00440039  RH  097%=      5-min Rain = 0
KBI1 221401Z 35008KT 04/04 A3016 RMK A01 T00440039  RH  097%=      5-min Rain = 0
KBI1 221402Z 35008KT 04/04 A3016 RMK A01 T00440039  RH  096%=      5-min Rain = 0
KBI1 221403Z 35008KT 04/04 A3016 RMK A01 T00440039  RH  096%=      5-min Rain = 0
KBI1 221404Z 35011KT 04/04 A3016 RMK A01 T00440039  RH  096%=      5-min Rain = 0
KBI1 221405Z 35010KT 04/04 A3016 RMK A01 T00440038  RH  096%=      5-min Rain = 0
KBI1 221406Z 35009KT 04/04 A3016 RMK A01 T00440038  RH  096%=      5-min Rain = 0
KBI1 221407Z 35009KT 04/04 A3016 RMK A01 T00430038  RH  096%=      5-min Rain = 0
KBI1 221408Z 35009KT 04/04 A3016 RMK A01 T00430038  RH  096%=      5-min Rain = 0
KBI1 221409Z 35009KT 04/04 A3016 RMK A01 T00430038  RH  096%=      5-min Rain = 0
KBI1 221410Z 36009KT 04/04 A3016 RMK A01 T00430038  RH  096%=      5-min Rain = 0
KBI1 221411Z 35008KT 04/04 A3016 RMK A01 T00430038  RH  096%=      5-min Rain = 0
KBI1 221412Z 36007KT 04/04 A3016 RMK A01 T00440039  RH  096%=      5-min Rain = 0
KBI1 221413Z 35008KT 04/04 A3016 RMK A01 T00440038  RH  096%=      5-min Rain = 0
KBI1 221414Z 35007KT 04/04 A3016 RMK A01 T00440039  RH  096%=      5-min Rain = 0
KBI1 221415Z 35009KT 04/04 A3016 RMK A01 T00440039  RH  096%=      5-min Rain = 0
KBI1 221416Z 36007KT 05/04 A3016 RMK A01 T00450039  RH  096%=      5-min Rain = 0
KBI1 221417Z 01010KT 05/04 A3016 RMK A01 T00450039  RH  096%=      5-min Rain = 0
KBI1 221418Z 01008KT 04/04 A3016 RMK A01 T00440039  RH  096%=      5-min Rain = 0
KBI1 221419Z 00010KT 04/04 A3016 RMK A01 T00440039  RH  096%=      5-min Rain = 0
KBI1 221420Z 36009KT 04/04 A3016 RMK A01 T00440039  RH  096%=      5-min Rain = 0
KBI1 221421Z 00010KT 04/04 A3016 RMK A01 T00440039  RH  096%=      5-min Rain = 0
KBI1 221422Z 01009KT 04/04 A3016 RMK A01 T00430038  RH  096%=      5-min Rain = 0
KBI1 221423Z 00009KT 04/04 A3016 RMK A01 T00440039  RH  097%=      5-min Rain = 0
KBI1 221424Z 00009KT 04/04 A3016 RMK A01 T00430039  RH  097%=      5-min Rain = 0
KBI1 221425Z 00009KT 04/04 A3016 RMK A01 T00430039  RH  097%=      5-min Rain = 0
KBI1 221426Z 36010KT 04/04 A3016 RMK A01 T00430039  RH  097%=      5-min Rain = 0
KBI1 221427Z 34009KT 04/04 A3016 RMK A01 T00430039  RH  097%=      5-min Rain = 0
KBI1 221428Z 34007KT 04/04 A3016 RMK A01 T00440039  RH  097%=      5-min Rain = 0
KBI1 221429Z 34010KT 04/04 A3016 RMK A01 T00440040  RH  097%=      5-min Rain = 0
KBI1 221430Z 35009KT 05/04 A3016 RMK A01 T00450041  RH  097%=      5-min Rain = 0
KBI1 221431Z 01010KT 05/04 A3017 RMK A01 T00450041  RH  097%=      5-min Rain = 0
KBI1 221432Z 01010KT 05/04 A3017 RMK A01 T00450041  RH  097%=      5-min Rain = 0
KBI1 221433Z 01011KT 04/04 A3017 RMK A01 T00440040  RH  097%=      5-min Rain = 0
KBI1 221434Z 36010KT 04/04 A3017 RMK A01 T00440040  RH  097%=      5-min Rain = 0
KBI1 221435Z 00007KT 04/04 A3017 RMK A01 T00440040  RH  097%=      5-min Rain = 0
KBI1 221436Z 01008KT 04/04 A3017 RMK A01 T00440041  RH  098%=      5-min Rain = 0
KBI1 221437Z 01010KT 05/04 A3017 RMK A01 T00450042  RH  098%=      5-min Rain = 0
KBI1 221438Z 00010KT 05/04 A3017 RMK A01 T00460042  RH  098%=      5-min Rain = 0
KBI1 221439Z 00008KT 05/04 A3017 RMK A01 T00450042  RH  098%=      5-min Rain = 0
KBI1 221440Z 00007KT 05/04 A3017 RMK A01 T00460043  RH  098%=      5-min Rain = 0
KBI1 221441Z 36009KT 05/04 A3017 RMK A01 T00460043  RH  098%=      5-min Rain = 0
KBI1 221442Z 34007KT 05/04 A3017 RMK A01 T00470044  RH  098%=      5-min Rain = 0
KBI1 221443Z 34009KT 05/04 A3018 RMK A01 T00470043  RH  098%=      5-min Rain = 0
KBI1 221444Z 34008KT 05/04 A3018 RMK A01 T00470044  RH  098%=      5-min Rain = 0
KBI1 221445Z 34010KT 05/04 A3018 RMK A01 T00470044  RH  098%=      5-min Rain = 0
KBI1 221446Z 35008KT 05/04 A3018 RMK A01 T00470044  RH  098%=      5-min Rain = 0
KBI1 221447Z 34010KT 05/04 A3018 RMK A01 T00480044  RH  098%=      5-min Rain = 0
KBI1 221448Z 35011KT 05/04 A3018 RMK A01 T00480044  RH  098%=      5-min Rain = 0
KBI1 221449Z 35010KT 05/04 A3018 RMK A01 T00470044  RH  098%=      5-min Rain = 0
KBI1 221450Z 33009KT 05/04 A3018 RMK A01 T00470044  RH  098%=      5-min Rain = 0
KBI1 221451Z 33011KT 05/04 A3018 RMK A01 T00480044  RH  098%=      5-min Rain = 0
KBI1 221452Z 34009KT 05/04 A3018 RMK A01 T00480044  RH  098%=      5-min Rain = 0
KBI1 221453Z 33008KT 05/05 A3018 RMK A01 T00480045  RH  098%=      5-min Rain = 0
KBI1 221454Z 34009KT 05/05 A3018 RMK A01 T00480045  RH  098%=      5-min Rain = 0
KBI1 221455Z 36008KT 05/05 A3019 RMK A01 T00480045  RH  098%=      5-min Rain = 0
KBI1 221456Z 36010KT 05/05 A3019 RMK A01 T00490045  RH  098%=      5-min Rain = 0
KBI1 221457Z 36010KT 05/05 A3019 RMK A01 T00480045  RH  098%=      5-min Rain = 0
KBI1 221458Z 36009KT 05/05 A3019 RMK A01 T00480045  RH  098%=      5-min Rain = 0
KBI1 221459Z 35010KT 05/05 A3019 RMK A01 T00480045  RH  098%=      5-min Rain = 0
KBI1 221500Z 35010KT 05/04 A3019 RMK A01 T00480044  RH  098%=      5-min Rain = 0
KBI1 221501Z 01007KT 05/04 A3019 RMK A01 T00470043  RH  097%=      5-min Rain = 0
KBI1 221502Z 00010KT 05/04 A3019 RMK A01 T00480044  RH  098%=      5-min Rain = 0
KBI1 221503Z 01008KT 05/04 A3019 RMK A01 T00470043  RH  097%=      5-min Rain = 0
KBI1 221504Z 01009KT 05/04 A3019 RMK A01 T00470044  RH  098%=      5-min Rain = 0
KBI1 221505Z 01008KT 05/04 A3019 RMK A01 T00470043  RH  098%=      5-min Rain = 0
KBI1 221506Z 01008KT 05/04 A3019 RMK A01 T00470043  RH  098%=      5-min Rain = 0
KBI1 221507Z 00009KT 05/04 A3019 RMK A01 T00470043  RH  098%=      5-min Rain = 0
KBI1 221508Z 00009KT 05/04 A3019 RMK A01 T00470044  RH  098%=      5-min Rain = 0
KBI1 221509Z 34009KT 05/05 A3019 RMK A01 T00480045  RH  098%=      5-min Rain = 0
KBI1 221510Z 33011KT 05/05 A3019 RMK A01 T00480045  RH  098%=      5-min Rain = 0
KBI1 221511Z 34011KT 05/05 A3019 RMK A01 T00480045  RH  098%=      5-min Rain = 0
KBI1 221512Z 34011KT 05/05 A3019 RMK A01 T00480045  RH  098%=      5-min Rain = 0
KBI1 221513Z 35011KT 05/05 A3019 RMK A01 T00480045  RH  098%=      5-min Rain = 0
KBI1 221514Z 36010KT 05/04 A3019 RMK A01 T00480044  RH  098%=      5-min Rain = 0
KBI1 221515Z 36009KT 05/04 A3019 RMK A01 T00470044  RH  098%=      5-min Rain = 0
KBI1 221516Z 35009KT 05/04 A3019 RMK A01 T00470044  RH  098%=      5-min Rain = 0
KBI1 221517Z 36010KT 05/04 A3019 RMK A01 T00480044  RH  098%=      5-min Rain = 0
KBI1 221518Z 36010KT 05/05 A3019 RMK A01 T00480045  RH  098%=      5-min Rain = 0
KBI1 221519Z 35009KT 05/04 A3019 RMK A01 T00480044  RH  098%=      5-min Rain = 0
KBI1 221520Z 35010KT 05/04 A3019 RMK A01 T00470044  RH  098%=      5-min Rain = 0
KBI1 221521Z 35011KT 05/04 A3019 RMK A01 T00470043  RH  098%=      5-min Rain = 0
KBI1 221522Z 34012KT 05/04 A3019 RMK A01 T00470043  RH  098%=      5-min Rain = 0
KBI1 221523Z 34012KT 05/04 A3019 RMK A01 T00470043  RH  098%=      5-min Rain = 0
KBI1 221524Z 35010KT 05/04 A3019 RMK A01 T00470044  RH  098%=      5-min Rain = 0
KBI1 221525Z 36009KT 05/04 A3019 RMK A01 T00470044  RH  098%=      5-min Rain = 0
KBI1 221526Z 35008KT 05/05 A3019 RMK A01 T00480045  RH  098%=      5-min Rain = 0
KBI1 221527Z 35010KT 05/05 A3019 RMK A01 T00480045  RH  098%=      5-min Rain = 0
KBI1 221528Z 35011KT 05/05 A3019 RMK A01 T00480045  RH  098%=      5-min Rain = 0
KBI1 221529Z 35011KT 05/05 A3019 RMK A01 T00480045  RH  098%=      5-min Rain = 0
KBI1 221530Z 35011KT 05/05 A3019 RMK A01 T00480045  RH  098%=      5-min Rain = 0
KBI1 221531Z 36010KT 05/05 A3019 RMK A01 T00480045  RH  098%=      5-min Rain = 0
KBI1 221532Z 35009KT 05/05 A3019 RMK A01 T00480045  RH  098%=      5-min Rain = 0
KBI1 221533Z 35011KT 05/05 A3019 RMK A01 T00480045  RH  098%=      5-min Rain = 0
KBI1 221534Z 35009KT 05/05 A3019 RMK A01 T00480045  RH  098%=      5-min Rain = 0
KBI1 221535Z 34010KT 05/05 A302 RMK A01 T00490046  RH  098%=      5-min Rain = 0
KBI1 221536Z 34009KT 05/05 A302 RMK A01 T00500047  RH  098%=      5-min Rain = 0
KBI1 221537Z 34010KT 05/05 A3019 RMK A01 T00500047  RH  098%=      5-min Rain = 0
KBI1 221538Z 34012KT 05/05 A3019 RMK A01 T00500047  RH  098%=      5-min Rain = 0
KBI1 221539Z 33012KT 05/05 A3019 RMK A01 T00490046  RH  098%=      5-min Rain = 0
KBI1 221540Z 34010KT 05/05 A302 RMK A01 T00490046  RH  098%=      5-min Rain = 0
KBI1 221541Z 35010KT 05/05 A302 RMK A01 T00490046  RH  098%=      5-min Rain = 0
KBI1 221542Z 35008KT 05/05 A302 RMK A01 T00500047  RH  098%=      5-min Rain = 0
KBI1 221543Z 36008KT 05/05 A302 RMK A01 T00490046  RH  098%=      5-min Rain = 0
KBI1 221544Z 00009KT 05/05 A302 RMK A01 T00490046  RH  098%=      5-min Rain = 0
KBI1 221545Z 00009KT 05/05 A3019 RMK A01 T00510047  RH  098%=      5-min Rain = 0
KBI1 221546Z 00008KT 05/05 A3019 RMK A01 T00510048  RH  098%=      5-min Rain = 0
KBI1 221547Z 36010KT 05/05 A3019 RMK A01 T00510047  RH  098%=      5-min Rain = 0
KBI1 221548Z 36011KT 05/05 A3019 RMK A01 T00500047  RH  098%=      5-min Rain = 0
KBI1 221549Z 00012KT 05/05 A302 RMK A01 T00510047  RH  098%=      5-min Rain = 0
KBI1 221550Z 00011KT 05/05 A302 RMK A01 T00500047  RH  098%=      5-min Rain = 0
KBI1 221551Z 00009KT 05/05 A302 RMK A01 T00500047  RH  098%=      5-min Rain = 0
KBI1 221552Z 01009KT 05/05 A302 RMK A01 T00500047  RH  098%=      5-min Rain = 0
KBI1 221553Z 36007KT 05/05 A302 RMK A01 T00500047  RH  098%=      5-min Rain = 0
KBI1 221554Z 36007KT 05/05 A302 RMK A01 T00500047  RH  098%=      5-min Rain = 0
KBI1 221555Z 34008KT 05/05 A302 RMK A01 T00520048  RH  098%=      5-min Rain = 0
KBI1 221556Z 35010KT 05/05 A302 RMK A01 T00520049  RH  098%=      5-min Rain = 0
KBI1 221557Z 35008KT 05/05 A302 RMK A01 T00520048  RH  098%=      5-min Rain = 0
KBI1 221558Z 36008KT 05/05 A302 RMK A01 T00520048  RH  098%=      5-min Rain = 0
KBI1 221559Z 00008KT 05/05 A302 RMK A01 T00530049  RH  098%=      5-min Rain = 0
KBI1 221600Z 36010KT 05/05 A302 RMK A01 T00530049  RH  098%=      5-min Rain = 0
KBI1 221601Z 35007KT 05/05 A302 RMK A01 T00530049  RH  098%=      5-min Rain = 0
KBI1 221602Z 34009KT 05/05 A3019 RMK A01 T00530049  RH  098%=      5-min Rain = 0
KBI1 221603Z 34010KT 05/05 A302 RMK A01 T00520048  RH  097%=      5-min Rain = 0
KBI1 221604Z 34010KT 05/05 A302 RMK A01 T00520048  RH  097%=      5-min Rain = 0
KBI1 221605Z 34010KT 05/05 A302 RMK A01 T00520048  RH  097%=      5-min Rain = 0
KBI1 221606Z 34010KT 05/05 A302 RMK A01 T00520048  RH  097%=      5-min Rain = 0
KBI1 221607Z 33010KT 05/05 A302 RMK A01 T00520048  RH  097%=      5-min Rain = 0
KBI1 221608Z 33011KT 05/05 A302 RMK A01 T00520048  RH  097%=      5-min Rain = 0
KBI1 221609Z 34011KT 05/05 A302 RMK A01 T00520048  RH  097%=      5-min Rain = 0
KBI1 221610Z 34009KT 05/05 A302 RMK A01 T00520048  RH  097%=      5-min Rain = 0
KBI1 221611Z 34009KT 05/05 A302 RMK A01 T00520048  RH  097%=      5-min Rain = 0
KBI1 221612Z 35010KT 05/05 A302 RMK A01 T00520048  RH  097%=      5-min Rain = 0
KBI1 221613Z 35009KT 05/05 A302 RMK A01 T00520048  RH  097%=      5-min Rain = 0
KBI1 221614Z 35008KT 05/05 A302 RMK A01 T00520048  RH  097%=      5-min Rain = 0
KBI1 221615Z 36007KT 05/05 A302 RMK A01 T00530049  RH  097%=      5-min Rain = 0
KBI1 221616Z 36009KT 05/05 A3019 RMK A01 T00540050  RH  097%=      5-min Rain = 0
KBI1 221617Z 01009KT 05/05 A302 RMK A01 T00540050  RH  097%=      5-min Rain = 0
KBI1 221618Z 01010KT 05/05 A302 RMK A01 T00540050  RH  097%=      5-min Rain = 0
KBI1 221619Z 01009KT 05/05 A302 RMK A01 T00540049  RH  097%=      5-min Rain = 0
KBI1 221620Z 00009KT 05/05 A302 RMK A01 T00540049  RH  097%=      5-min Rain = 0
KBI1 221621Z 35009KT 05/05 A302 RMK A01 T00540049  RH  097%=      5-min Rain = 0
KBI1 221622Z 00007KT 05/05 A302 RMK A01 T00530048  RH  097%=      5-min Rain = 0
KBI1 221623Z 01007KT 05/05 A302 RMK A01 T00540050  RH  097%=      5-min Rain = 0
KBI1 221624Z 36010KT 06/05 A302 RMK A01 T00550051  RH  097%=      5-min Rain = 0
KBI1 221625Z 00009KT 06/05 A302 RMK A01 T00550050  RH  097%=      5-min Rain = 0
KBI1 221626Z 35009KT 06/05 A3019 RMK A01 T00550050  RH  097%=      5-min Rain = 0
KBI1 221627Z 35012KT 06/05 A3019 RMK A01 T00550050  RH  096%=      5-min Rain = 0
KBI1 221628Z 35011KT 05/05 A3019 RMK A01 T00540048  RH  096%=      5-min Rain = 0
KBI1 221629Z 35010KT 05/05 A3019 RMK A01 T00540048  RH  096%=      5-min Rain = 0
KBI1 221630Z 36010KT 05/05 A3019 RMK A01 T00540048  RH  096%=      5-min Rain = 0
KBI1 221631Z 36010KT 05/05 A3019 RMK A01 T00540048  RH  096%=      5-min Rain = 0
KBI1 221632Z 36009KT 05/05 A3019 RMK A01 T00540048  RH  096%=      5-min Rain = 0
KBI1 221633Z 00011KT 05/05 A3019 RMK A01 T00540048  RH  096%=      5-min Rain = 0
KBI1 221634Z 36009KT 05/05 A3019 RMK A01 T00540048  RH  096%=      5-min Rain = 0
KBI1 221635Z 36010KT 06/05 A3019 RMK A01 T00550049  RH  096%=      5-min Rain = 0
KBI1 221636Z 01010KT 06/05 A3019 RMK A01 T00550049  RH  096%=      5-min Rain = 0
KBI1 221637Z 00009KT 06/05 A3019 RMK A01 T00560050  RH  096%=      5-min Rain = 0
KBI1 221638Z 35010KT 06/05 A3019 RMK A01 T00570051  RH  096%=      5-min Rain = 0
KBI1 221639Z 36009KT 06/05 A3019 RMK A01 T00570050  RH  095%=      5-min Rain = 0
KBI1 221640Z 35011KT 06/05 A3019 RMK A01 T00580051  RH  095%=      5-min Rain = 0
KBI1 221641Z 35012KT 06/05 A3019 RMK A01 T00570049  RH  095%=      5-min Rain = 0
KBI1 221642Z 35012KT 06/05 A3019 RMK A01 T00560048  RH  095%=      5-min Rain = 0
KBI1 221643Z 35009KT 06/05 A3019 RMK A01 T00550047  RH  095%=      5-min Rain = 0
KBI1 221644Z 35011KT 06/05 A3019 RMK A01 T00560048  RH  095%=      5-min Rain = 0
KBI1 221645Z 36011KT 06/05 A3019 RMK A01 T00560049  RH  095%=      5-min Rain = 0
KBI1 221646Z 35009KT 06/05 A3019 RMK A01 T00570049  RH  095%=      5-min Rain = 0
KBI1 221647Z 35010KT 06/05 A3019 RMK A01 T00570050  RH  095%=      5-min Rain = 0
KBI1 221648Z 34010KT 06/05 A3019 RMK A01 T00580049  RH  094%=      5-min Rain = 0
KBI1 221649Z 34010KT 06/05 A3019 RMK A01 T00580050  RH  095%=      5-min Rain = 0
KBI1 221650Z 36008KT 06/05 A3019 RMK A01 T00580050  RH  095%=      5-min Rain = 0
KBI1 221651Z 01007KT 06/05 A3019 RMK A01 T00590051  RH  094%=      5-min Rain = 0
KBI1 221652Z 01010KT 06/05 A3019 RMK A01 T00600051  RH  094%=      5-min Rain = 0
KBI1 221653Z 00011KT 06/05 A3019 RMK A01 T00600050  RH  094%=      5-min Rain = 0
KBI1 221654Z 00010KT 06/05 A3019 RMK A01 T00590050  RH  094%=      5-min Rain = 0
KBI1 221655Z 36008KT 06/05 A3019 RMK A01 T00590049  RH  093%=      5-min Rain = 0
KBI1 221656Z 01009G14KT 06/05 A3019 RMK A01 T00590049  RH  094%=      5-min Rain = 0
KBI1 221657Z 36010KT 06/05 A3019 RMK A01 T00610052  RH  094%=      5-min Rain = 0
KBI1 221658Z 00010KT 06/05 A3018 RMK A01 T00610051  RH  093%=      5-min Rain = 0
KBI1 221659Z 35009KT 06/05 A3018 RMK A01 T00600050  RH  093%=      5-min Rain = 0
KBI1 221700Z 00009KT 06/05 A3018 RMK A01 T00610051  RH  093%=      5-min Rain = 0
KBI1 221701Z 36009KT 06/05 A3018 RMK A01 T00610050  RH  093%=      5-min Rain = 0
KBI1 221702Z 34008KT 06/05 A3018 RMK A01 T00610050  RH  093%=      5-min Rain = 0
KBI1 221703Z 33010KT 06/05 A3018 RMK A01 T00620052  RH  093%=      5-min Rain = 0
KBI1 221704Z 34011KT 06/05 A3018 RMK A01 T00620051  RH  093%=      5-min Rain = 0
KBI1 221705Z 36009KT 06/05 A3019 RMK A01 T00610049  RH  092%=      5-min Rain = 0
KBI1 221706Z 00010KT 06/05 A3018 RMK A01 T00610050  RH  092%=      5-min Rain = 0
KBI1 221707Z 00009KT 06/05 A3018 RMK A01 T00620050  RH  092%=      5-min Rain = 0
KBI1 221708Z 36011KT 06/05 A3018 RMK A01 T00610049  RH  092%=      5-min Rain = 0
KBI1 221709Z 35009KT 06/05 A3018 RMK A01 T00610048  RH  092%=      5-min Rain = 0
KBI1 221710Z 34008KT 06/05 A3018 RMK A01 T00620050  RH  092%=      5-min Rain = 0
KBI1 221711Z 34006KT 06/05 A3018 RMK A01 T00630051  RH  092%=      5-min Rain = 0
KBI1 221712Z 00009KT 06/05 A3018 RMK A01 T00640053  RH  092%=      5-min Rain = 0
KBI1 221713Z 00011KT 07/05 A3018 RMK A01 T00650052  RH  092%=      5-min Rain = 0
KBI1 221714Z 00010KT 06/05 A3018 RMK A01 T00640050  RH  091%=      5-min Rain = 0
KBI1 221715Z 00009KT 06/05 A3018 RMK A01 T00640050  RH  091%=      5-min Rain = 0
KBI1 221716Z 00010KT 06/05 A3018 RMK A01 T00640051  RH  091%=      5-min Rain = 0
KBI1 221717Z 00011KT 06/05 A3018 RMK A01 T00640050  RH  091%=      5-min Rain = 0
KBI1 221718Z 00010KT 06/05 A3018 RMK A01 T00630048  RH  090%=      5-min Rain = 0
KBI1 221719Z 00009KT 06/05 A3018 RMK A01 T00630049  RH  090%=      5-min Rain = 0
KBI1 221720Z 35007KT 06/05 A3018 RMK A01 T00630049  RH  091%=      5-min Rain = 0
KBI1 221721Z 34010KT 06/05 A3018 RMK A01 T00630050  RH  091%=      5-min Rain = 0
KBI1 221722Z 35009KT 06/05 A3019 RMK A01 T00640049  RH  091%=      5-min Rain = 0
KBI1 221723Z 35008KT 06/05 A3019 RMK A01 T00640049  RH  090%=      5-min Rain = 0
KBI1 221724Z 34010KT 06/05 A3018 RMK A01 T00630048  RH  090%=      5-min Rain = 0
KBI1 221725Z 34008KT 06/05 A3018 RMK A01 T00630048  RH  090%=      5-min Rain = 0
KBI1 221726Z 34006KT 06/05 A3018 RMK A01 T00640049  RH  090%=      5-min Rain = 0
KBI1 221727Z 33009KT 06/05 A3018 RMK A01 T00640049  RH  090%=      5-min Rain = 0
KBI1 221728Z 33010KT 06/05 A3018 RMK A01 T00640048  RH  090%=      5-min Rain = 0
KBI1 221729Z 33011KT 06/05 A3018 RMK A01 T00640048  RH  090%=      5-min Rain = 0
KBI1 221730Z 33009KT 06/05 A3018 RMK A01 T00630048  RH  090%=      5-min Rain = 0
KBI1 221731Z 35010KT 06/05 A3018 RMK A01 T00640048  RH  090%=      5-min Rain = 0
KBI1 221732Z 35010KT 06/05 A3018 RMK A01 T00640049  RH  090%=      5-min Rain = 0
KBI1 221733Z 35008KT 07/05 A3018 RMK A01 T00650048  RH  089%=      5-min Rain = 0
KBI1 221734Z 34008KT 07/05 A3018 RMK A01 T00650049  RH  089%=      5-min Rain = 0
KBI1 221735Z 36007KT 07/05 A3018 RMK A01 T00660050  RH  090%=      5-min Rain = 0
KBI1 221736Z 36006KT 07/05 A3018 RMK A01 T00670052  RH  090%=      5-min Rain = 0
KBI1 221737Z 36007KT 07/05 A3018 RMK A01 T00680051  RH  089%=      5-min Rain = 0
KBI1 221738Z 35007KT 07/05 A3018 RMK A01 T00680050  RH  088%=      5-min Rain = 0
KBI1 221739Z 33008KT 07/05 A3018 RMK A01 T00680049  RH  088%=      5-min Rain = 0
KBI1 221740Z 33010KT 07/05 A3018 RMK A01 T00680049  RH  088%=      5-min Rain = 0
KBI1 221741Z 33010KT 07/05 A3018 RMK A01 T00670047  RH  088%=      5-min Rain = 0
KBI1 221742Z 34009KT 07/05 A3018 RMK A01 T00660048  RH  088%=      5-min Rain = 0
KBI1 221743Z 34007KT 07/05 A3018 RMK A01 T00670049  RH  088%=      5-min Rain = 0
KBI1 221744Z 33007KT 07/05 A3018 RMK A01 T00670048  RH  088%=      5-min Rain = 0
KBI1 221745Z 34007KT 07/05 A3018 RMK A01 T00670048  RH  088%=      5-min Rain = 0
KBI1 221746Z 34007KT 07/05 A3018 RMK A01 T00670049  RH  088%=      5-min Rain = 0
KBI1 221747Z 00008KT 07/05 A3018 RMK A01 T00690052  RH  089%=      5-min Rain = 0
KBI1 221748Z 01009KT 07/05 A3018 RMK A01 T00700051  RH  088%=      5-min Rain = 0
KBI1 221749Z 01008KT 07/05 A3018 RMK A01 T00690048  RH  087%=      5-min Rain = 0
KBI1 221750Z 01007KT 07/05 A3018 RMK A01 T00680048  RH  087%=      5-min Rain = 0
KBI1 221751Z 01008KT 07/05 A3018 RMK A01 T00680049  RH  088%=      5-min Rain = 0
KBI1 221752Z 01008KT 07/05 A3018 RMK A01 T00680050  RH  088%=      5-min Rain = 0
KBI1 221753Z 02008KT 07/05 A3018 RMK A01 T00690050  RH  088%=      5-min Rain = 0
KBI1 221754Z 01009KT 07/05 A3018 RMK A01 T00690049  RH  087%=      5-min Rain = 0
KBI1 221755Z 35008KT 07/05 A3018 RMK A01 T00700050  RH  087%=      5-min Rain = 0
KBI1 221756Z 01009KT 07/05 A3018 RMK A01 T00710051  RH  087%=      5-min Rain = 0
KBI1 221757Z 36009KT 07/05 A3018 RMK A01 T00700049  RH  086%=      5-min Rain = 0
KBI1 221758Z 36008KT 07/05 A3018 RMK A01 T00700049  RH  087%=      5-min Rain = 0
KBI1 221759Z 36009KT 07/05 A3018 RMK A01 T00700049  RH  087%=      5-min Rain = 0
KBI1 221800Z 36009KT 07/05 A3018 RMK A01 T00690048  RH  086%=      5-min Rain = 0
KBI1 221801Z 36009KT 07/05 A3017 RMK A01 T00680047  RH  086%=      5-min Rain = 0
KBI1 221802Z 01008KT 07/05 A3017 RMK A01 T00680048  RH  087%=      5-min Rain = 0
KBI1 221803Z 36007KT 07/05 A3017 RMK A01 T00690049  RH  087%=      5-min Rain = 0
KBI1 221804Z 34008KT 07/05 A3017 RMK A01 T00700050  RH  087%=      5-min Rain = 0
KBI1 221805Z 35007KT 07/05 A3017 RMK A01 T00700049  RH  086%=      5-min Rain = 0
KBI1 221806Z 01008KT 07/05 A3017 RMK A01 T00700047  RH  086%=      5-min Rain = 0
KBI1 221807Z 00007KT 07/05 A3017 RMK A01 T00680047  RH  086%=      5-min Rain = 0
KBI1 221808Z 35009KT 07/05 A3017 RMK A01 T00680047  RH  087%=      5-min Rain = 0
KBI1 221809Z 35008KT 07/05 A3017 RMK A01 T00690049  RH  087%=      5-min Rain = 0
KBI1 221810Z 35010KT 07/05 A3017 RMK A01 T00700049  RH  086%=      5-min Rain = 0
KBI1 221811Z 36010KT 07/05 A3017 RMK A01 T00690047  RH  086%=      5-min Rain = 0
KBI1 221812Z 36007KT 07/05 A3017 RMK A01 T00690048  RH  086%=      5-min Rain = 0
KBI1 221813Z 34009KT 07/05 A3017 RMK A01 T00690049  RH  087%=      5-min Rain = 0
KBI1 221814Z 35009KT 07/05 A3017 RMK A01 T00690048  RH  086%=      5-min Rain = 0
KBI1 221815Z 36007KT 07/05 A3017 RMK A01 T00700048  RH  086%=      5-min Rain = 0
KBI1 221816Z 33007KT 07/05 A3017 RMK A01 T00700049  RH  087%=      5-min Rain = 0
KBI1 221817Z 33006KT 07/05 A3017 RMK A01 T00700047  RH  085%=      5-min Rain = 0
KBI1 221818Z 34009KT 07/05 A3016 RMK A01 T00690047  RH  086%=      5-min Rain = 0
KBI1 221819Z 33009KT 07/05 A3016 RMK A01 T00700048  RH  086%=      5-min Rain = 0
KBI1 221820Z 36008KT 07/05 A3016 RMK A01 T00700047  RH  085%=      5-min Rain = 0
KBI1 221821Z 36010KT 07/05 A3016 RMK A01 T00700048  RH  086%=      5-min Rain = 0
KBI1 221822Z 35011KT 07/05 A3016 RMK A01 T00720049  RH  085%=      5-min Rain = 0
KBI1 221823Z 36009KT 07/05 A3016 RMK A01 T00720047  RH  084%=      5-min Rain = 0
KBI1 221824Z 34008KT 07/05 A3016 RMK A01 T00710047  RH  084%=      5-min Rain = 0
KBI1 221825Z 34008KT 07/05 A3016 RMK A01 T00710046  RH  084%=      5-min Rain = 0
KBI1 221826Z 01009KT 07/05 A3016 RMK A01 T00720047  RH  084%=      5-min Rain = 0
KBI1 221827Z 01009KT 07/05 A3016 RMK A01 T00720046  RH  084%=      5-min Rain = 0
KBI1 221828Z 00009KT 07/05 A3016 RMK A01 T00720047  RH  084%=      5-min Rain = 0
KBI1 221829Z 00007KT 07/05 A3016 RMK A01 T00720046  RH  083%=      5-min Rain = 0
KBI1 221830Z 00008KT 07/05 A3016 RMK A01 T00720046  RH  083%=      5-min Rain = 0
KBI1 221831Z 35008KT 07/05 A3016 RMK A01 T00730047  RH  084%=      5-min Rain = 0
KBI1 221832Z 02007KT 07/05 A3015 RMK A01 T00730047  RH  083%=      5-min Rain = 0
KBI1 221833Z 02008KT 07/05 A3015 RMK A01 T00740047  RH  083%=      5-min Rain = 0
KBI1 221834Z 36011KT 07/05 A3015 RMK A01 T00740047  RH  083%=      5-min Rain = 0
KBI1 221835Z 36010KT 08/05 A3015 RMK A01 T00750046  RH  082%=      5-min Rain = 0
KBI1 221836Z 01009KT 08/05 A3015 RMK A01 T00750047  RH  082%=      5-min Rain = 0
KBI1 221837Z 01007KT 08/05 A3015 RMK A01 T00750047  RH  082%=      5-min Rain = 0
KBI1 221838Z 01008KT 08/05 A3015 RMK A01 T00770049  RH  082%=      5-min Rain = 0
KBI1 221839Z 00008KT 08/05 A3015 RMK A01 T00770047  RH  081%=      5-min Rain = 0
KBI1 221840Z 36010KT 08/05 A3015 RMK A01 T00770046  RH  081%=      5-min Rain = 0
KBI1 221841Z 00009KT 08/05 A3015 RMK A01 T00760046  RH  081%=      5-min Rain = 0
KBI1 221842Z 36010KT 08/05 A3015 RMK A01 T00770046  RH  081%=      5-min Rain = 0
KBI1 221843Z 00009KT 08/05 A3015 RMK A01 T00770046  RH  081%=      5-min Rain = 0
KBI1 221844Z 01007KT 08/04 A3015 RMK A01 T00760044  RH  080%=      5-min Rain = 0
KBI1 221845Z 02008KT 08/05 A3014 RMK A01 T00750045  RH  081%=      5-min Rain = 0
KBI1 221846Z 02008KT 08/05 A3014 RMK A01 T00760047  RH  082%=      5-min Rain = 0
KBI1 221847Z 03007G12KT 08/05 A3014 RMK A01 T00790048  RH  081%=      5-min Rain = 0
KBI1 221848Z 02010KT 08/05 A3014 RMK A01 T00800047  RH  080%=      5-min Rain = 0
KBI1 221849Z 01010KT 08/05 A3014 RMK A01 T00810047  RH  079%=      5-min Rain = 0
KBI1 221850Z 36007KT 08/05 A3014 RMK A01 T00810046  RH  079%=      5-min Rain = 0
KBI1 221851Z 35006KT 08/05 A3014 RMK A01 T00800046  RH  079%=      5-min Rain = 0
KBI1 221852Z 02007KT 08/05 A3014 RMK A01 T00810048  RH  080%=      5-min Rain = 0
KBI1 221853Z 02006KT 08/05 A3014 RMK A01 T00830049  RH  079%=      5-min Rain = 0
KBI1 221854Z 01007KT 09/05 A3014 RMK A01 T00850050  RH  079%=      5-min Rain = 0
KBI1 221855Z 00007KT 09/05 A3014 RMK A01 T00870049  RH  077%=      5-min Rain = 0
KBI1 221856Z 01008KT 09/05 A3014 RMK A01 T00860048  RH  077%=      5-min Rain = 0
KBI1 221857Z 36007KT 09/05 A3014 RMK A01 T00850046  RH  077%=      5-min Rain = 0
KBI1 221858Z 00006KT 08/05 A3013 RMK A01 T00840046  RH  077%=      5-min Rain = 0
KBI1 221859Z 36005KT 08/05 A3013 RMK A01 T00840047  RH  078%=      5-min Rain = 0
KBI1 221900Z 35004KT 08/05 A3013 RMK A01 T00830047  RH  078%=      5-min Rain = 0
KBI1 221901Z 01005KT 08/05 A3013 RMK A01 T00840048  RH  078%=      5-min Rain = 0
KBI1 221902Z 02006KT 09/05 A3013 RMK A01 T00880052  RH  078%=      5-min Rain = 0
KBI1 221903Z 35008KT 09/05 A3013 RMK A01 T00910051  RH  076%=      5-min Rain = 0
KBI1 221904Z 35007KT 09/05 A3013 RMK A01 T00900048  RH  075%=      5-min Rain = 0
KBI1 221905Z 34008KT 09/05 A3013 RMK A01 T00890048  RH  076%=      5-min Rain = 0
KBI1 221906Z 33006KT 09/05 A3013 RMK A01 T00880046  RH  075%=      5-min Rain = 0
KBI1 221907Z 35009KT 09/05 A3013 RMK A01 T00870048  RH  076%=      5-min Rain = 0
KBI1 221908Z 01008KT 09/05 A3013 RMK A01 T00900049  RH  076%=      5-min Rain = 0
KBI1 221909Z 01006KT 09/05 A3013 RMK A01 T00900048  RH  075%=      5-min Rain = 0
KBI1 221910Z 01006KT 09/05 A3013 RMK A01 T00900049  RH  075%=      5-min Rain = 0
KBI1 221911Z 01008KT 09/05 A3013 RMK A01 T00910049  RH  075%=      5-min Rain = 0
KBI1 221912Z 01006KT 09/05 A3013 RMK A01 T00920048  RH  074%=      5-min Rain = 0
KBI1 221913Z 01007KT 09/05 A3013 RMK A01 T00910048  RH  075%=      5-min Rain = 0
KBI1 221914Z 01009KT 09/05 A3013 RMK A01 T00930051  RH  075%=      5-min Rain = 0
KBI1 221915Z 01006KT 10/05 A3013 RMK A01 T00950049  RH  073%=      5-min Rain = 0
KBI1 221916Z 36008KT 10/05 A3013 RMK A01 T00950050  RH  073%=      5-min Rain = 0
KBI1 221917Z 00007KT 10/05 A3013 RMK A01 T00950048  RH  072%=      5-min Rain = 0
KBI1 221918Z 35007KT 09/05 A3012 RMK A01 T00930047  RH  073%=      5-min Rain = 0
KBI1 221919Z 35006KT 09/05 A3012 RMK A01 T00920048  RH  074%=      5-min Rain = 0
KBI1 221920Z 34006KT 09/05 A3012 RMK A01 T00930050  RH  074%=      5-min Rain = 0
KBI1 221921Z 33006KT 10/05 A3012 RMK A01 T00960051  RH  073%=      5-min Rain = 0
KBI1 221922Z 35007KT 10/05 A3012 RMK A01 T00970051  RH  073%=      5-min Rain = 0
KBI1 221923Z 33007KT 10/05 A3012 RMK A01 T01010053  RH  072%=      5-min Rain = 0
KBI1 221924Z 33008KT 10/05 A3012 RMK A01 T01020050  RH  070%=      5-min Rain = 0
KBI1 221925Z 33007KT 10/05 A3012 RMK A01 T01010050  RH  071%=      5-min Rain = 0
KBI1 221926Z 33008KT 10/05 A3012 RMK A01 T00990049  RH  071%=      5-min Rain = 0
KBI1 221927Z 01007KT 10/05 A3012 RMK A01 T01000050  RH  071%=      5-min Rain = 0
KBI1 221928Z 01007KT 10/05 A3012 RMK A01 T00990049  RH  071%=      5-min Rain = 0
KBI1 221929Z 34006KT 10/05 A3012 RMK A01 T00990049  RH  071%=      5-min Rain = 0
KBI1 221930Z 35005KT 10/05 A3012 RMK A01 T00980048  RH  071%=      5-min Rain = 0
KBI1 221931Z 35005KT 10/05 A3012 RMK A01 T00990049  RH  071%=      5-min Rain = 0
KBI1 221932Z 35006KT 10/05 A3012 RMK A01 T01000050  RH  071%=      5-min Rain = 0
KBI1 221933Z 03007KT 10/05 A3012 RMK A01 T01040052  RH  070%=      5-min Rain = 0
KBI1 221934Z 02009KT 11/05 A3012 RMK A01 T01050050  RH  069%=      5-min Rain = 0
KBI1 221935Z 02007KT 10/05 A3011 RMK A01 T01020048  RH  069%=      5-min Rain = 0
KBI1 221936Z 01008KT 10/05 A3011 RMK A01 T00990047  RH  070%=      5-min Rain = 0
KBI1 221937Z 01005KT 10/05 A3011 RMK A01 T00970047  RH  071%=      5-min Rain = 0
KBI1 221938Z 01006KT 10/05 A3011 RMK A01 T00980050  RH  072%=      5-min Rain = 0
KBI1 221939Z 36009KT 10/05 A3011 RMK A01 T01000050  RH  071%=      5-min Rain = 0
KBI1 221940Z 36008KT 10/05 A3011 RMK A01 T01010049  RH  070%=      5-min Rain = 0
KBI1 221941Z 02005KT 10/05 A3011 RMK A01 T01000049  RH  070%=      5-min Rain = 0
KBI1 221942Z 01006KT 10/05 A3011 RMK A01 T01000049  RH  071%=      5-min Rain = 0
KBI1 221943Z 01008KT 10/05 A3011 RMK A01 T01020051  RH  070%=      5-min Rain = 0
KBI1 221944Z 01008KT 11/05 A3011 RMK A01 T01050050  RH  069%=      5-min Rain = 0
KBI1 221945Z 01006KT 10/05 A3011 RMK A01 T01030049  RH  069%=      5-min Rain = 0
KBI1 221946Z 02004KT 10/05 A3011 RMK A01 T01020049  RH  070%=      5-min Rain = 0
KBI1 221947Z 36007KT 10/05 A3011 RMK A01 T01030051  RH  070%=      5-min Rain = 0
KBI1 221948Z 36009KT 10/05 A3011 RMK A01 T01040050  RH  069%=      5-min Rain = 0
KBI1 221949Z 35007KT 10/05 A3011 RMK A01 T01040050  RH  069%=      5-min Rain = 0
KBI1 221950Z 35006KT 10/05 A3011 RMK A01 T01030049  RH  069%=      5-min Rain = 0
KBI1 221951Z 00008KT 10/05 A3011 RMK A01 T01040051  RH  070%=      5-min Rain = 0
KBI1 221952Z 01007KT 10/05 A301 RMK A01 T01040049  RH  069%=      5-min Rain = 0
KBI1 221953Z 35005KT 10/05 A301 RMK A01 T01020049  RH  070%=      5-min Rain = 0
KBI1 221954Z 34008KT 10/05 A301 RMK A01 T01020049  RH  070%=      5-min Rain = 0
KBI1 221955Z 01007KT 10/05 A301 RMK A01 T01020049  RH  070%=      5-min Rain = 0
KBI1 221956Z 01005KT 10/05 A301 RMK A01 T01020049  RH  070%=      5-min Rain = 0
KBI1 221957Z 02006KT 10/05 A301 RMK A01 T01040050  RH  069%=      5-min Rain = 0
KBI1 221958Z 02005KT 11/05 A301 RMK A01 T01050049  RH  068%=      5-min Rain = 0
KBI1 221959Z 02005KT 10/05 A301 RMK A01 T01040049  RH  069%=      5-min Rain = 0
KBI1 222000Z 02008KT 11/05 A301 RMK A01 T01050052  RH  069%=      5-min Rain = 0
KBI1 222001Z 00008KT 11/05 A301 RMK A01 T01070050  RH  068%=      5-min Rain = 0
KBI1 222002Z 02008KT 11/05 A301 RMK A01 T01070050  RH  068%=      5-min Rain = 0
KBI1 222003Z 02008KT 11/05 A301 RMK A01 T01070050  RH  068%=      5-min Rain = 0
KBI1 222004Z 02006KT 11/05 A301 RMK A01 T01050049  RH  068%=      5-min Rain = 0
KBI1 222005Z 02007KT 11/05 A301 RMK A01 T01060051  RH  069%=      5-min Rain = 0
KBI1 222006Z 01009KT 11/05 A301 RMK A01 T01070050  RH  068%=      5-min Rain = 0
KBI1 222007Z 36006KT 11/05 A301 RMK A01 T01060049  RH  068%=      5-min Rain = 0
KBI1 222008Z 01006KT 11/05 A301 RMK A01 T01050048  RH  068%=      5-min Rain = 0
KBI1 222009Z 36007KT 10/05 A301 RMK A01 T01020047  RH  069%=      5-min Rain = 0
KBI1 222010Z 01006KT 10/05 A301 RMK A01 T01020048  RH  069%=      5-min Rain = 0
KBI1 222011Z 00007KT 10/05 A301 RMK A01 T01020048  RH  069%=      5-min Rain = 0
KBI1 222012Z 01008KT 10/05 A301 RMK A01 T01030049  RH  069%=      5-min Rain = 0
KBI1 222013Z 00007KT 10/05 A301 RMK A01 T01030047  RH  068%=      5-min Rain = 0
KBI1 222014Z 01006KT 10/05 A301 RMK A01 T01030048  RH  069%=      5-min Rain = 0
KBI1 222015Z 01005KT 10/05 A301 RMK A01 T01030048  RH  069%=      5-min Rain = 0
KBI1 222016Z 35003KT 10/05 A301 RMK A01 T01030049  RH  069%=      5-min Rain = 0
KBI1 222017Z 34006KT 10/05 A301 RMK A01 T01040048  RH  069%=      5-min Rain = 0
KBI1 222018Z 01006KT 11/05 A301 RMK A01 T01050050  RH  069%=      5-min Rain = 0
KBI1 222019Z 03006KT 11/05 A301 RMK A01 T01070049  RH  067%=      5-min Rain = 0
KBI1 222020Z 02006KT 11/05 A301 RMK A01 T01060050  RH  068%=      5-min Rain = 0
KBI1 222021Z 03008KT 11/05 A301 RMK A01 T01080050  RH  067%=      5-min Rain = 0
KBI1 222022Z 02005KT 11/05 A301 RMK A01 T01080049  RH  067%=      5-min Rain = 0
KBI1 222023Z 01006KT 11/05 A301 RMK A01 T01080049  RH  067%=      5-min Rain = 0
KBI1 222024Z 00007KT 11/05 A301 RMK A01 T01080049  RH  067%=      5-min Rain = 0
KBI1 222025Z 02007KT 11/05 A301 RMK A01 T01090050  RH  067%=      5-min Rain = 0
KBI1 222026Z 01005KT 11/05 A301 RMK A01 T01080048  RH  066%=      5-min Rain = 0
KBI1 222027Z 35006KT 11/05 A301 RMK A01 T01070049  RH  067%=      5-min Rain = 0
KBI1 222028Z 01005KT 11/05 A301 RMK A01 T01060048  RH  067%=      5-min Rain = 0
KBI1 222029Z 01007KT 11/05 A301 RMK A01 T01060049  RH  068%=      5-min Rain = 0
KBI1 222030Z 35005KT 11/05 A301 RMK A01 T01060049  RH  067%=      5-min Rain = 0
KBI1 222031Z 35007KT 11/05 A301 RMK A01 T01070048  RH  067%=      5-min Rain = 0
KBI1 222032Z 35008KT 11/05 A301 RMK A01 T01070048  RH  067%=      5-min Rain = 0
KBI1 222033Z 35006KT 11/05 A301 RMK A01 T01070048  RH  067%=      5-min Rain = 0
KBI1 222034Z 01006KT 11/05 A301 RMK A01 T01070048  RH  067%=      5-min Rain = 0
KBI1 222035Z 02005KT 11/05 A301 RMK A01 T01060047  RH  067%=      5-min Rain = 0
KBI1 222036Z 36004KT 11/05 A3009 RMK A01 T01060048  RH  067%=      5-min Rain = 0
KBI1 222037Z 03004KT 11/05 A3009 RMK A01 T01070048  RH  067%=      5-min Rain = 0
KBI1 222038Z 03004KT 11/05 A3009 RMK A01 T01090050  RH  067%=      5-min Rain = 0
KBI1 222039Z 01002KT 11/05 A3009 RMK A01 T01100048  RH  065%=      5-min Rain = 0
KBI1 222040Z 36004G9KT 11/05 A3009 RMK A01 T01090049  RH  066%=      5-min Rain = 0
KBI1 222041Z 36007KT 11/05 A3009 RMK A01 T01100048  RH  065%=      5-min Rain = 0
KBI1 222042Z 01006KT 11/05 A3009 RMK A01 T01100048  RH  066%=      5-min Rain = 0
KBI1 222043Z 02006KT 11/05 A3009 RMK A01 T01100047  RH  065%=      5-min Rain = 0
KBI1 222044Z 01004KT 11/05 A3009 RMK A01 T01090048  RH  066%=      5-min Rain = 0
KBI1 222045Z 01003KT 11/05 A3009 RMK A01 T01090048  RH  066%=      5-min Rain = 0
KBI1 222046Z 00005KT 11/05 A3009 RMK A01 T01090048  RH  066%=      5-min Rain = 0
KBI1 222047Z 00006KT 11/05 A3009 RMK A01 T01100049  RH  066%=      5-min Rain = 0
KBI1 222048Z 02006KT 11/05 A3009 RMK A01 T01110048  RH  065%=      5-min Rain = 0
KBI1 222049Z 02005KT 11/05 A3009 RMK A01 T01110049  RH  066%=      5-min Rain = 0
KBI1 222050Z 01008KT 11/05 A3009 RMK A01 T01130050  RH  065%=      5-min Rain = 0
KBI1 222051Z 01007KT 11/05 A3009 RMK A01 T01120047  RH  064%=      5-min Rain = 0
KBI1 222052Z 35005KT 11/05 A3009 RMK A01 T01100047  RH  065%=      5-min Rain = 0
KBI1 222053Z 00006KT 11/05 A3009 RMK A01 T01090048  RH  066%=      5-min Rain = 0
KBI1 222054Z 02006KT 11/05 A3009 RMK A01 T01110050  RH  066%=      5-min Rain = 0
KBI1 222055Z 02006KT 11/05 A3009 RMK A01 T01130049  RH  065%=      5-min Rain = 0
KBI1 222056Z 02006KT 11/05 A3009 RMK A01 T01140050  RH  065%=      5-min Rain = 0
KBI1 222057Z 35007KT 12/05 A3009 RMK A01 T01160049  RH  064%=      5-min Rain = 0
KBI1 222058Z 36008KT 12/05 A3009 RMK A01 T01150049  RH  064%=      5-min Rain = 0
KBI1 222059Z 36007KT 11/05 A3009 RMK A01 T01140049  RH  064%=      5-min Rain = 0
KBI1 222100Z 00005G10KT 11/05 A3009 RMK A01 T01140049  RH  064%=      5-min Rain = 0
KBI1 222101Z 36006KT 12/05 A3009 RMK A01 T01150050  RH  064%=      5-min Rain = 0
KBI1 222102Z 35005KT 12/05 A3009 RMK A01 T01170050  RH  063%=      5-min Rain = 0
KBI1 222103Z 00006KT 12/05 A3009 RMK A01 T01180050  RH  063%=      5-min Rain = 0
KBI1 222104Z 02006KT 12/05 A3009 RMK A01 T01190050  RH  062%=      5-min Rain = 0
KBI1 222105Z 01005KT 12/05 A3009 RMK A01 T01180049  RH  062%=      5-min Rain = 0
KBI1 222106Z 03004KT 12/05 A3009 RMK A01 T01170049  RH  063%=      5-min Rain = 0
KBI1 222107Z 01003KT 12/05 A3009 RMK A01 T01160049  RH  063%=      5-min Rain = 0
KBI1 222108Z 02005KT 12/05 A3009 RMK A01 T01150048  RH  063%=      5-min Rain = 0
KBI1 222109Z 00007KT 11/05 A3009 RMK A01 T01140049  RH  064%=      5-min Rain = 0
KBI1 222110Z 34006KT 11/05 A3009 RMK A01 T01140049  RH  064%=      5-min Rain = 0
KBI1 222111Z 02004KT 11/05 A3009 RMK A01 T01130049  RH  065%=      5-min Rain = 0
KBI1 222112Z 05004KT 11/05 A3009 RMK A01 T01140048  RH  064%=      5-min Rain = 0
KBI1 222113Z 03006KT 11/05 A3009 RMK A01 T01140049  RH  064%=      5-min Rain = 0
KBI1 222114Z 02007KT 11/05 A3009 RMK A01 T01140049  RH  065%=      5-min Rain = 0
KBI1 222115Z 03006KT 11/05 A3009 RMK A01 T01130048  RH  064%=      5-min Rain = 0
KBI1 222116Z 03006KT 11/05 A3009 RMK A01 T01130048  RH  065%=      5-min Rain = 0
KBI1 222117Z 02006KT 11/05 A3009 RMK A01 T01120049  RH  065%=      5-min Rain = 0
KBI1 222118Z 03007KT 11/05 A3009 RMK A01 T01130049  RH  065%=      5-min Rain = 0
KBI1 222119Z 01008KT 11/05 A3009 RMK A01 T01140048  RH  064%=      5-min Rain = 0
KBI1 222120Z 00008KT 11/05 A3009 RMK A01 T01130048  RH  064%=      5-min Rain = 0
KBI1 222121Z 03007KT 11/05 A3009 RMK A01 T01140049  RH  064%=      5-min Rain = 0
KBI1 222122Z 03005KT 11/05 A3009 RMK A01 T01140048  RH  064%=      5-min Rain = 0
KBI1 222123Z 03006KT 11/05 A3009 RMK A01 T01140049  RH  064%=      5-min Rain = 0
KBI1 222124Z 02006KT 12/05 A3009 RMK A01 T01150048  RH  063%=      5-min Rain = 0
KBI1 222125Z 01008KT 12/05 A3009 RMK A01 T01150048  RH  063%=      5-min Rain = 0
KBI1 222126Z 00008KT 11/05 A3009 RMK A01 T01140048  RH  064%=      5-min Rain = 0
KBI1 222127Z 36006KT 11/05 A3009 RMK A01 T01140047  RH  064%=      5-min Rain = 0
KBI1 222128Z 35005KT 11/05 A3009 RMK A01 T01130047  RH  064%=      5-min Rain = 0
KBI1 222129Z 00005KT 11/05 A3009 RMK A01 T01120047  RH  064%=      5-min Rain = 0
KBI1 222130Z 01006KT 11/05 A3009 RMK A01 T01120047  RH  065%=      5-min Rain = 0
KBI1 222131Z 01003KT 11/05 A3009 RMK A01 T01120047  RH  064%=      5-min Rain = 0
KBI1 222132Z 03003KT 11/05 A3009 RMK A01 T01120047  RH  064%=      5-min Rain = 0
KBI1 222133Z 02004KT 11/05 A3009 RMK A01 T01130048  RH  064%=      5-min Rain = 0
KBI1 222134Z 01005KT 11/05 A3009 RMK A01 T01130047  RH  064%=      5-min Rain = 0
KBI1 222135Z 00005KT 11/05 A3009 RMK A01 T01140048  RH  064%=      5-min Rain = 0
KBI1 222136Z 35005KT 12/05 A3009 RMK A01 T01160049  RH  063%=      5-min Rain = 0
KBI1 222137Z 34004KT 12/05 A3009 RMK A01 T01190049  RH  062%=      5-min Rain = 0
KBI1 222138Z 35005KT 12/05 A3009 RMK A01 T01210049  RH  062%=      5-min Rain = 0
KBI1 222139Z 36006KT 12/05 A3009 RMK A01 T01210048  RH  061%=      5-min Rain = 0
KBI1 222140Z 35007KT 12/05 A3008 RMK A01 T01190047  RH  062%=      5-min Rain = 0
KBI1 222141Z 03006KT 12/05 A3008 RMK A01 T01180048  RH  062%=      5-min Rain = 0
KBI1 222142Z 05004KT 12/05 A3008 RMK A01 T01180047  RH  062%=      5-min Rain = 0
KBI1 222143Z 04006KT 12/05 A3008 RMK A01 T01170048  RH  063%=      5-min Rain = 0
KBI1 222144Z 03004KT 12/05 A3008 RMK A01 T01180047  RH  062%=      5-min Rain = 0
KBI1 222145Z 02004KT 12/05 A3008 RMK A01 T01180048  RH  062%=      5-min Rain = 0
KBI1 222146Z 03004KT 12/05 A3008 RMK A01 T01180048  RH  062%=      5-min Rain = 0
KBI1 222147Z 00007KT 12/05 A3008 RMK A01 T01190048  RH  062%=      5-min Rain = 0
KBI1 222148Z 36006KT 12/05 A3008 RMK A01 T01190047  RH  062%=      5-min Rain = 0
KBI1 222149Z 35003KT 12/05 A3008 RMK A01 T01170047  RH  062%=      5-min Rain = 0
KBI1 222150Z 36004KT 12/05 A3008 RMK A01 T01160047  RH  062%=      5-min Rain = 0
KBI1 222151Z 36005KT 12/05 A3008 RMK A01 T01150046  RH  063%=      5-min Rain = 0
KBI1 222152Z 01007KT 12/05 A3008 RMK A01 T01150047  RH  063%=      5-min Rain = 0
KBI1 222153Z 36006KT 12/05 A3008 RMK A01 T01160047  RH  063%=      5-min Rain = 0
KBI1 222154Z 35006KT 12/05 A3008 RMK A01 T01160046  RH  062%=      5-min Rain = 0
KBI1 222155Z 02005KT 12/05 A3008 RMK A01 T01150046  RH  063%=      5-min Rain = 0
KBI1 222156Z 03005KT 12/05 A3008 RMK A01 T01150046  RH  063%=      5-min Rain = 0
KBI1 222157Z 36006KT 12/05 A3008 RMK A01 T01150046  RH  062%=      5-min Rain = 0
KBI1 222158Z 01005KT 12/05 A3008 RMK A01 T01160047  RH  062%=      5-min Rain = 0
KBI1 222159Z 01003KT 12/05 A3008 RMK A01 T01160046  RH  062%=      5-min Rain = 0
KBI1 222200Z 03004KT 11/05 A3008 RMK A01 T01140045  RH  063%=      5-min Rain = 0
KBI1 222201Z 01004KT 11/05 A3008 RMK A01 T01140046  RH  063%=      5-min Rain = 0
KBI1 222202Z 36003KT 11/05 A3008 RMK A01 T01140046  RH  063%=      5-min Rain = 0
KBI1 222203Z 35005KT 11/05 A3008 RMK A01 T01140046  RH  063%=      5-min Rain = 0
KBI1 222204Z 00005KT 12/05 A3008 RMK A01 T01150046  RH  063%=      5-min Rain = 0
KBI1 222205Z 00004KT 12/05 A3008 RMK A01 T01150046  RH  063%=      5-min Rain = 0
KBI1 222206Z 36004KT 12/05 A3008 RMK A01 T01150047  RH  063%=      5-min Rain = 0
KBI1 222207Z 02004KT 12/05 A3008 RMK A01 T01160048  RH  063%=      5-min Rain = 0
KBI1 222208Z 03007KT 12/05 A3008 RMK A01 T01180048  RH  062%=      5-min Rain = 0
KBI1 222209Z 04005KT 12/05 A3008 RMK A01 T01190047  RH  062%=      5-min Rain = 0
KBI1 222210Z 05005KT 12/05 A3008 RMK A01 T01180048  RH  062%=      5-min Rain = 0
KBI1 222211Z 04005KT 12/05 A3008 RMK A01 T01170047  RH  062%=      5-min Rain = 0
KBI1 222212Z 05006KT 12/05 A3008 RMK A01 T01170047  RH  062%=      5-min Rain = 0
KBI1 222213Z 05005KT 12/05 A3008 RMK A01 T01170047  RH  062%=      5-min Rain = 0
KBI1 222214Z 07003KT 12/05 A3007 RMK A01 T01160047  RH  062%=      5-min Rain = 0
KBI1 222215Z 06003KT 12/05 A3007 RMK A01 T01170048  RH  062%=      5-min Rain = 0
KBI1 222216Z 05004KT 12/05 A3007 RMK A01 T01170047  RH  062%=      5-min Rain = 0
KBI1 222217Z 04004KT 12/05 A3007 RMK A01 T01170047  RH  062%=      5-min Rain = 0
KBI1 222218Z 01006KT 12/05 A3007 RMK A01 T01180048  RH  062%=      5-min Rain = 0
KBI1 222219Z 02006KT 12/05 A3007 RMK A01 T01190048  RH  062%=      5-min Rain = 0
KBI1 222220Z 02005KT 12/05 A3007 RMK A01 T01180048  RH  062%=      5-min Rain = 0
KBI1 222221Z 02006KT 12/05 A3007 RMK A01 T01190048  RH  062%=      5-min Rain = 0
KBI1 222222Z 02004KT 12/05 A3007 RMK A01 T01190048  RH  062%=      5-min Rain = 0
KBI1 222223Z 01003KT 12/05 A3007 RMK A01 T01180047  RH  062%=      5-min Rain = 0
KBI1 222224Z 04002KT 12/05 A3007 RMK A01 T01180047  RH  062%=      5-min Rain = 0
KBI1 222225Z 01005KT 12/05 A3007 RMK A01 T01170048  RH  062%=      5-min Rain = 0
KBI1 222226Z 01005KT 12/05 A3007 RMK A01 T01180047  RH  062%=      5-min Rain = 0
KBI1 222227Z 01004KT 12/05 A3007 RMK A01 T01180047  RH  062%=      5-min Rain = 0
KBI1 222228Z 02005KT 12/05 A3007 RMK A01 T01180047  RH  062%=      5-min Rain = 0
KBI1 222229Z 02003KT 12/05 A3007 RMK A01 T01170047  RH  062%=      5-min Rain = 0
KBI1 222230Z 03003KT 12/05 A3007 RMK A01 T01160047  RH  062%=      5-min Rain = 0
KBI1 222231Z 03006KT 12/05 A3007 RMK A01 T01170048  RH  062%=      5-min Rain = 0
KBI1 222232Z 05005KT 12/05 A3007 RMK A01 T01180047  RH  062%=      5-min Rain = 0
KBI1 222233Z 06004KT 12/05 A3007 RMK A01 T01170046  RH  062%=      5-min Rain = 0
KBI1 222234Z 06003KT 12/05 A3007 RMK A01 T01150046  RH  062%=      5-min Rain = 0
KBI1 222235Z 07003KT 12/05 A3007 RMK A01 T01150047  RH  063%=      5-min Rain = 0
KBI1 222236Z 06003KT 12/05 A3007 RMK A01 T01150047  RH  063%=      5-min Rain = 0
KBI1 222237Z 03005KT 12/05 A3007 RMK A01 T01150047  RH  063%=      5-min Rain = 0
KBI1 222238Z 05005KT 12/05 A3007 RMK A01 T01150046  RH  063%=      5-min Rain = 0
KBI1 222239Z 05004KT 12/05 A3007 RMK A01 T01150047  RH  063%=      5-min Rain = 0
KBI1 222240Z 01004KT 12/05 A3007 RMK A01 T01150047  RH  063%=      5-min Rain = 0
KBI1 222241Z 02004KT 12/05 A3007 RMK A01 T01150046  RH  062%=      5-min Rain = 0
KBI1 222242Z 01004KT 12/05 A3007 RMK A01 T01150046  RH  062%=      5-min Rain = 0
KBI1 222243Z 01005KT 12/05 A3007 RMK A01 T01150046  RH  063%=      5-min Rain = 0
KBI1 222244Z 01004KT 12/05 A3007 RMK A01 T01150046  RH  063%=      5-min Rain = 0
KBI1 222245Z 02003KT 11/05 A3007 RMK A01 T01140046  RH  063%=      5-min Rain = 0
KBI1 222246Z 02003KT 11/05 A3007 RMK A01 T01140046  RH  063%=      5-min Rain = 0
KBI1 222247Z 03005KT 12/05 A3007 RMK A01 T01150046  RH  063%=      5-min Rain = 0
KBI1 222248Z 04005KT 12/05 A3007 RMK A01 T01150046  RH  063%=      5-min Rain = 0
KBI1 222249Z 04005KT 12/05 A3007 RMK A01 T01150046  RH  063%=      5-min Rain = 0
KBI1 222250Z 03004KT 11/05 A3007 RMK A01 T01140046  RH  063%=      5-min Rain = 0
KBI1 222251Z 01005KT 11/05 A3007 RMK A01 T01140046  RH  063%=      5-min Rain = 0
KBI1 222252Z 03005KT 11/05 A3007 RMK A01 T01140046  RH  063%=      5-min Rain = 0
KBI1 222253Z 02004KT 11/05 A3007 RMK A01 T01130046  RH  063%=      5-min Rain = 0
KBI1 222254Z 02004KT 11/05 A3007 RMK A01 T01130046  RH  063%=      5-min Rain = 0
KBI1 222255Z 02006KT 11/05 A3007 RMK A01 T01130046  RH  063%=      5-min Rain = 0
KBI1 222256Z 03005KT 11/05 A3007 RMK A01 T01120045  RH  063%=      5-min Rain = 0
KBI1 222257Z 03005KT 11/05 A3007 RMK A01 T01120046  RH  064%=      5-min Rain = 0
KBI1 222258Z 02005KT 11/05 A3006 RMK A01 T01120046  RH  064%=      5-min Rain = 0
KBI1 222259Z 03005KT 11/05 A3006 RMK A01 T01120046  RH  064%=      5-min Rain = 0
KBI1 222300Z 05004KT 11/05 A3006 RMK A01 T01120046  RH  064%=      5-min Rain = 0
KBI1 222301Z 03005KT 11/05 A3006 RMK A01 T01120045  RH  064%=      5-min Rain = 0
KBI1 222302Z 03005KT 11/05 A3006 RMK A01 T01120046  RH  064%=      5-min Rain = 0
KBI1 222303Z 03004KT 11/05 A3006 RMK A01 T01120045  RH  064%=      5-min Rain = 0
KBI1 222304Z 03004KT 11/05 A3007 RMK A01 T01110045  RH  064%=      5-min Rain = 0
KBI1 222305Z 02004KT 11/05 A3007 RMK A01 T01100045  RH  064%=      5-min Rain = 0
KBI1 222306Z 02004KT 11/05 A3007 RMK A01 T01100045  RH  064%=      5-min Rain = 0
KBI1 222307Z 03006KT 11/05 A3007 RMK A01 T01100045  RH  064%=      5-min Rain = 0
KBI1 222308Z 03005KT 11/05 A3007 RMK A01 T01100045  RH  064%=      5-min Rain = 0
KBI1 222309Z 03004KT 11/05 A3007 RMK A01 T01100046  RH  065%=      5-min Rain = 0
KBI1 222310Z 05004KT 11/05 A3007 RMK A01 T01100046  RH  065%=      5-min Rain = 0
KBI1 222311Z 04003KT 11/05 A3007 RMK A01 T01100045  RH  064%=      5-min Rain = 0
KBI1 222312Z 06003KT 11/05 A3007 RMK A01 T01090045  RH  064%=      5-min Rain = 0
KBI1 222313Z 06003KT 11/05 A3007 RMK A01 T01090045  RH  065%=      5-min Rain = 0
KBI1 222314Z 03004KT 11/05 A3007 RMK A01 T01100046  RH  065%=      5-min Rain = 0
KBI1 222315Z 03003KT 11/05 A3007 RMK A01 T01090045  RH  064%=      5-min Rain = 0
KBI1 222316Z 03003KT 11/05 A3007 RMK A01 T01090045  RH  065%=      5-min Rain = 0
KBI1 222317Z 02004KT 11/05 A3007 RMK A01 T01090045  RH  065%=      5-min Rain = 0
KBI1 222318Z 03004KT 11/04 A3007 RMK A01 T01080044  RH  065%=      5-min Rain = 0
KBI1 222319Z 04003KT 11/05 A3007 RMK A01 T01080045  RH  065%=      5-min Rain = 0
KBI1 222320Z 03004KT 11/05 A3007 RMK A01 T01080045  RH  065%=      5-min Rain = 0
KBI1 222321Z 02004KT 11/05 A3007 RMK A01 T01070045  RH  065%=      5-min Rain = 0
KBI1 222322Z 03005KT 11/05 A3007 RMK A01 T01080045  RH  065%=      5-min Rain = 0
KBI1 222323Z 03004KT 11/05 A3007 RMK A01 T01070045  RH  065%=      5-min Rain = 0
KBI1 222324Z 03004KT 11/04 A3007 RMK A01 T01070044  RH  065%=      5-min Rain = 0
KBI1 222325Z 04004KT 11/04 A3007 RMK A01 T01060044  RH  066%=      5-min Rain = 0
KBI1 222326Z 04004KT 11/05 A3007 RMK A01 T01060045  RH  066%=      5-min Rain = 0
KBI1 222327Z 04004KT 11/04 A3007 RMK A01 T01060044  RH  066%=      5-min Rain = 0
KBI1 222328Z 05004KT 11/05 A3007 RMK A01 T01060045  RH  066%=      5-min Rain = 0
KBI1 222329Z 05004KT 11/05 A3007 RMK A01 T01060045  RH  066%=      5-min Rain = 0
KBI1 222330Z 04004KT 11/05 A3007 RMK A01 T01060045  RH  066%=      5-min Rain = 0
KBI1 222331Z 05004KT 11/04 A3007 RMK A01 T01060044  RH  066%=      5-min Rain = 0
KBI1 222332Z 05004KT 11/04 A3007 RMK A01 T01050044  RH  066%=      5-min Rain = 0
KBI1 222333Z 04003KT 11/04 A3007 RMK A01 T01050044  RH  066%=      5-min Rain = 0
KBI1 222334Z 04003KT 11/04 A3007 RMK A01 T01050044  RH  066%=      5-min Rain = 0
KBI1 222335Z 04004KT 11/04 A3007 RMK A01 T01050044  RH  066%=      5-min Rain = 0
KBI1 222336Z 05004KT 10/04 A3007 RMK A01 T01040044  RH  066%=      5-min Rain = 0
KBI1 222337Z 04004KT 10/04 A3007 RMK A01 T01040044  RH  066%=      5-min Rain = 0
KBI1 222338Z 04004KT 10/04 A3007 RMK A01 T01040044  RH  066%=      5-min Rain = 0
KBI1 222339Z 04004KT 10/04 A3007 RMK A01 T01030044  RH  066%=      5-min Rain = 0
KBI1 222340Z 04004KT 10/04 A3007 RMK A01 T01030044  RH  067%=      5-min Rain = 0
KBI1 222341Z 05003KT 10/04 A3007 RMK A01 T01020044  RH  067%=      5-min Rain = 0
KBI1 222342Z 04004KT 10/04 A3007 RMK A01 T01030044  RH  067%=      5-min Rain = 0
KBI1 222343Z 04004KT 10/04 A3007 RMK A01 T01020044  RH  067%=      5-min Rain = 0
KBI1 222344Z 04004KT 10/04 A3007 RMK A01 T01020044  RH  067%=      5-min Rain = 0
KBI1 222345Z 04003KT 10/04 A3007 RMK A01 T01020044  RH  067%=      5-min Rain = 0
KBI1 222346Z 04004KT 10/04 A3007 RMK A01 T01020044  RH  067%=      5-min Rain = 0
KBI1 222347Z 05004KT 10/04 A3007 RMK A01 T01010044  RH  067%=      5-min Rain = 0
KBI1 222348Z 05004KT 10/04 A3007 RMK A01 T01020044  RH  067%=      5-min Rain = 0
KBI1 222349Z 04003KT 10/04 A3007 RMK A01 T01020044  RH  067%=      5-min Rain = 0
KBI1 222350Z 04004KT 10/04 A3007 RMK A01 T01010043  RH  068%=      5-min Rain = 0
KBI1 222351Z 04003KT 10/04 A3007 RMK A01 T01000044  RH  068%=      5-min Rain = 0
KBI1 222352Z 04002KT 10/04 A3007 RMK A01 T01000044  RH  068%=      5-min Rain = 0
KBI1 222353Z 05003KT 10/04 A3007 RMK A01 T01000044  RH  068%=      5-min Rain = 0
KBI1 222354Z 05003KT 10/04 A3007 RMK A01 T01000044  RH  068%=      5-min Rain = 0
KBI1 222355Z 05003KT 10/04 A3007 RMK A01 T00990043  RH  068%=      5-min Rain = 0
KBI1 222356Z 05003KT 10/04 A3007 RMK A01 T00990043  RH  068%=      5-min Rain = 0
KBI1 222357Z 05003KT 10/04 A3007 RMK A01 T00990043  RH  068%=      5-min Rain = 0
KBI1 222358Z 05003KT 10/04 A3007 RMK A01 T00990043  RH  068%=      5-min Rain = 0
KBI1 222359Z 06002KT 10/04 A3007 RMK A01 T00990043  RH  068%=      5-min Rain = 0
KBI1 230000Z 07002KT 10/04 A3007 RMK A01 T00990043  RH  068%=      5-min Rain = 0
KBI1 230001Z 07002KT 10/04 A3007 RMK A01 T00990043  RH  069%=      5-min Rain = 0
KBI1 230002Z 08002KT 10/04 A3007 RMK A01 T00980044  RH  069%=      5-min Rain = 0
KBI1 230003Z 07002KT 10/04 A3007 RMK A01 T00980044  RH  069%=      5-min Rain = 0
KBI1 230004Z 07002KT 10/04 A3007 RMK A01 T00980044  RH  069%=      5-min Rain = 0
KBI1 230005Z 07002KT 10/04 A3007 RMK A01 T00980044  RH  069%=      5-min Rain = 0
KBI1 230006Z 07002KT 10/04 A3007 RMK A01 T00980044  RH  069%=      5-min Rain = 0
KBI1 230007Z 07002KT 10/04 A3007 RMK A01 T00970044  RH  069%=      5-min Rain = 0
KBI1 230008Z 07002KT 10/04 A3007 RMK A01 T00970044  RH  069%=      5-min Rain = 0
KBI1 230009Z 07002KT 10/04 A3007 RMK A01 T00970044  RH  070%=      5-min Rain = 0
KBI1 230010Z 07002KT 10/04 A3007 RMK A01 T00970044  RH  069%=      5-min Rain = 0
KBI1 230011Z 07002KT 10/04 A3007 RMK A01 T00980044  RH  069%=      5-min Rain = 0
KBI1 230012Z 07002KT 10/04 A3007 RMK A01 T00970044  RH  069%=      5-min Rain = 0
KBI1 230013Z 07002KT 10/04 A3007 RMK A01 T00970044  RH  069%=      5-min Rain = 0
KBI1 230014Z 07002KT 10/04 A3007 RMK A01 T00970044  RH  070%=      5-min Rain = 0
KBI1 230015Z 06002KT 10/04 A3007 RMK A01 T00960044  RH  070%=      5-min Rain = 0
KBI1 230016Z 07002KT 10/04 A3007 RMK A01 T00960044  RH  070%=      5-min Rain = 0
KBI1 230017Z 07002KT 10/04 A3007 RMK A01 T00960044  RH  070%=      5-min Rain = 0
KBI1 230018Z 07002KT 10/04 A3007 RMK A01 T00960044  RH  070%=      5-min Rain = 0
KBI1 230019Z 07002KT 10/04 A3007 RMK A01 T00960044  RH  070%=      5-min Rain = 0
KBI1 230020Z 07002KT 10/04 A3007 RMK A01 T00960044  RH  070%=      5-min Rain = 0
KBI1 230021Z 07002KT 10/04 A3007 RMK A01 T00950044  RH  070%=      5-min Rain = 0
KBI1 230022Z 07002KT 10/04 A3007 RMK A01 T00950044  RH  070%=      5-min Rain = 0
KBI1 230023Z 07002KT 10/04 A3007 RMK A01 T00950044  RH  070%=      5-min Rain = 0
KBI1 230024Z 07003KT 10/04 A3007 RMK A01 T00950044  RH  071%=      5-min Rain = 0
KBI1 230025Z 07002KT 10/04 A3007 RMK A01 T00950044  RH  071%=      5-min Rain = 0
KBI1 230026Z 07002KT 10/04 A3007 RMK A01 T00950044  RH  071%=      5-min Rain = 0
KBI1 230027Z 06002KT 09/04 A3007 RMK A01 T00940044  RH  071%=      5-min Rain = 0
KBI1 230028Z 06003KT 10/04 A3007 RMK A01 T00950044  RH  071%=      5-min Rain = 0
KBI1 230029Z 06003KT 09/04 A3007 RMK A01 T00940043  RH  070%=      5-min Rain = 0
KBI1 230030Z 06003KT 09/04 A3007 RMK A01 T00940044  RH  070%=      5-min Rain = 0
KBI1 230031Z 07003KT 10/04 A3007 RMK A01 T00950044  RH  070%=      5-min Rain = 0
KBI1 230032Z 07003KT 10/04 A3007 RMK A01 T00950044  RH  070%=      5-min Rain = 0
KBI1 230033Z 08003KT 10/04 A3007 RMK A01 T00950044  RH  070%=      5-min Rain = 0
KBI1 230034Z 08004KT 09/04 A3007 RMK A01 T00940043  RH  071%=      5-min Rain = 0
KBI1 230035Z 08003KT 09/04 A3007 RMK A01 T00940044  RH  071%=      5-min Rain = 0
KBI1 230036Z 08004KT 09/04 A3007 RMK A01 T00930044  RH  071%=      5-min Rain = 0
KBI1 230037Z 08004KT 09/04 A3008 RMK A01 T00930044  RH  071%=      5-min Rain = 0
KBI1 230038Z 08004KT 09/04 A3008 RMK A01 T00920044  RH  072%=      5-min Rain = 0
KBI1 230039Z 08004KT 09/04 A3008 RMK A01 T00920044  RH  072%=      5-min Rain = 0
KBI1 230040Z 08004KT 09/04 A3008 RMK A01 T00920044  RH  072%=      5-min Rain = 0
KBI1 230041Z 09004KT 09/04 A3008 RMK A01 T00920044  RH  072%=      5-min Rain = 0
KBI1 230042Z 09004KT 09/04 A3007 RMK A01 T00920044  RH  072%=      5-min Rain = 0
KBI1 230043Z 09004KT 09/04 A3007 RMK A01 T00910044  RH  072%=      5-min Rain = 0
KBI1 230044Z 08004KT 09/04 A3007 RMK A01 T00910044  RH  072%=      5-min Rain = 0
KBI1 230045Z 09004KT 09/04 A3007 RMK A01 T00910044  RH  072%=      5-min Rain = 0
KBI1 230046Z 09004KT 09/04 A3007 RMK A01 T00900044  RH  073%=      5-min Rain = 0
KBI1 230047Z 10003KT 09/04 A3008 RMK A01 T00900044  RH  073%=      5-min Rain = 0
KBI1 230048Z 10003KT 09/05 A3008 RMK A01 T00900045  RH  073%=      5-min Rain = 0
KBI1 230049Z 10002KT 09/04 A3008 RMK A01 T00900044  RH  073%=      5-min Rain = 0
KBI1 230050Z 09003KT 09/04 A3008 RMK A01 T00900044  RH  073%=      5-min Rain = 0
KBI1 230051Z 11003KT 09/04 A3008 RMK A01 T00890044  RH  073%=      5-min Rain = 0
KBI1 230052Z 10002KT 09/04 A3008 RMK A01 T00890044  RH  073%=      5-min Rain = 0
KBI1 230053Z 10003KT 09/04 A3008 RMK A01 T00890044  RH  073%=      5-min Rain = 0
KBI1 230054Z 09003KT 09/04 A3008 RMK A01 T00890044  RH  073%=      5-min Rain = 0
KBI1 230055Z 10004KT 09/04 A3008 RMK A01 T00890044  RH  074%=      5-min Rain = 0
KBI1 230056Z 09004KT 09/04 A3008 RMK A01 T00880044  RH  073%=      5-min Rain = 0
KBI1 230057Z 10004KT 09/04 A3008 RMK A01 T00880044  RH  074%=      5-min Rain = 0
KBI1 230058Z 09003KT 09/04 A3008 RMK A01 T00880044  RH  074%=      5-min Rain = 0
KBI1 230059Z 09003KT 09/04 A3008 RMK A01 T00880044  RH  074%=      5-min Rain = 0
KBI1 230100Z 09003KT 09/04 A3008 RMK A01 T00880044  RH  074%=      5-min Rain = 0
KBI1 230101Z 09004KT 09/04 A3008 RMK A01 T00880044  RH  074%=      5-min Rain = 0
KBI1 230102Z 09004KT 09/04 A3008 RMK A01 T00870043  RH  074%=      5-min Rain = 0
KBI1 230103Z 09003KT 09/04 A3008 RMK A01 T00870044  RH  074%=      5-min Rain = 0
KBI1 230104Z 09004KT 09/04 A3008 RMK A01 T00870044  RH  074%=      5-min Rain = 0
KBI1 230105Z 09004KT 09/04 A3008 RMK A01 T00870044  RH  074%=      5-min Rain = 0
KBI1 230106Z 09003KT 09/04 A3008 RMK A01 T00870044  RH  074%=      5-min Rain = 0
KBI1 230107Z 08003KT 09/04 A3008 RMK A01 T00860044  RH  074%=      5-min Rain = 0
KBI1 230108Z 09004KT 09/04 A3008 RMK A01 T00860044  RH  075%=      5-min Rain = 0
KBI1 230109Z 08004KT 09/04 A3008 RMK A01 T00860044  RH  075%=      5-min Rain = 0
KBI1 230110Z 08003KT 09/04 A3008 RMK A01 T00870044  RH  075%=      5-min Rain = 0
KBI1 230111Z 08004KT 09/04 A3008 RMK A01 T00860044  RH  075%=      5-min Rain = 0
KBI1 230112Z 08004KT 09/04 A3008 RMK A01 T00860044  RH  074%=      5-min Rain = 0
KBI1 230113Z 08003KT 09/04 A3008 RMK A01 T00860044  RH  074%=      5-min Rain = 0
KBI1 230114Z 09003KT 09/04 A3008 RMK A01 T00860043  RH  075%=      5-min Rain = 0
KBI1 230115Z 09004KT 09/04 A3008 RMK A01 T00860043  RH  075%=      5-min Rain = 0
KBI1 230116Z 09003KT 09/04 A3008 RMK A01 T00850043  RH  075%=      5-min Rain = 0
KBI1 230117Z 09003KT 09/04 A3008 RMK A01 T00850044  RH  075%=      5-min Rain = 0
KBI1 230118Z 08004KT 09/04 A3008 RMK A01 T00850044  RH  075%=      5-min Rain = 0
KBI1 230119Z 09003KT 09/04 A3008 RMK A01 T00850044  RH  075%=      5-min Rain = 0
KBI1 230120Z 09004KT 08/04 A3008 RMK A01 T00840043  RH  075%=      5-min Rain = 0
KBI1 230121Z 09003KT 08/04 A3008 RMK A01 T00840044  RH  076%=      5-min Rain = 0
KBI1 230122Z 09003KT 08/04 A3008 RMK A01 T00840044  RH  076%=      5-min Rain = 0
KBI1 230123Z 09003KT 08/04 A3008 RMK A01 T00840044  RH  076%=      5-min Rain = 0
KBI1 230124Z 09003KT 08/04 A3008 RMK A01 T00840044  RH  076%=      5-min Rain = 0
KBI1 230125Z 10003KT 08/04 A3008 RMK A01 T00840043  RH  076%=      5-min Rain = 0
KBI1 230126Z 10003KT 08/04 A3008 RMK A01 T00840044  RH  076%=      5-min Rain = 0
KBI1 230127Z 10003KT 08/04 A3008 RMK A01 T00840044  RH  076%=      5-min Rain = 0
KBI1 230128Z 08002KT 08/04 A3008 RMK A01 T00840044  RH  076%=      5-min Rain = 0
KBI1 230129Z 08002KT 08/04 A3008 RMK A01 T00840044  RH  076%=      5-min Rain = 0
KBI1 230130Z 08002KT 08/04 A3008 RMK A01 T00840044  RH  076%=      5-min Rain = 0
KBI1 230131Z 08003KT 08/04 A3008 RMK A01 T00840044  RH  076%=      5-min Rain = 0
KBI1 230132Z 09003KT 08/04 A3008 RMK A01 T00840044  RH  076%=      5-min Rain = 0
KBI1 230133Z 09003KT 08/04 A3008 RMK A01 T00840044  RH  076%=      5-min Rain = 0
KBI1 230134Z 09003KT 08/04 A3008 RMK A01 T00840044  RH  076%=      5-min Rain = 0
KBI1 230135Z 08003KT 08/04 A3008 RMK A01 T00840044  RH  076%=      5-min Rain = 0
KBI1 230136Z 08003KT 08/04 A3008 RMK A01 T00840044  RH  076%=      5-min Rain = 0
KBI1 230137Z 08002KT 08/04 A3008 RMK A01 T00830044  RH  076%=      5-min Rain = 0
KBI1 230138Z 09002KT 08/04 A3008 RMK A01 T00830043  RH  076%=      5-min Rain = 0
KBI1 230139Z 08003KT 08/04 A3008 RMK A01 T00830044  RH  076%=      5-min Rain = 0
KBI1 230140Z 08003KT 08/04 A3008 RMK A01 T00820044  RH  077%=      5-min Rain = 0
KBI1 230141Z 08004KT 08/04 A3008 RMK A01 T00820043  RH  077%=      5-min Rain = 0
KBI1 230142Z 08003KT 08/04 A3008 RMK A01 T00820044  RH  077%=      5-min Rain = 0
KBI1 230143Z 09002KT 08/04 A3008 RMK A01 T00820044  RH  077%=      5-min Rain = 0
KBI1 230144Z 09003KT 08/04 A3008 RMK A01 T00820044  RH  077%=      5-min Rain = 0
KBI1 230145Z 08003KT 08/04 A3008 RMK A01 T00820044  RH  077%=      5-min Rain = 0
KBI1 230146Z 08003KT 08/04 A3008 RMK A01 T00820044  RH  077%=      5-min Rain = 0
KBI1 230147Z 08002KT 08/04 A3008 RMK A01 T00810044  RH  077%=      5-min Rain = 0
KBI1 230148Z 08004KT 08/04 A3008 RMK A01 T00810044  RH  077%=      5-min Rain = 0
KBI1 230149Z 08003KT 08/04 A3008 RMK A01 T00820044  RH  077%=      5-min Rain = 0
KBI1 230150Z 08002KT 08/04 A3008 RMK A01 T00820044  RH  077%=      5-min Rain = 0
KBI1 230151Z 08003KT 08/04 A3008 RMK A01 T00810044  RH  077%=      5-min Rain = 0
KBI1 230152Z 08003KT 08/04 A3008 RMK A01 T00810044  RH  077%=      5-min Rain = 0
KBI1 230153Z 08004KT 08/04 A3008 RMK A01 T00810044  RH  078%=      5-min Rain = 0
KBI1 230154Z 09004KT 08/04 A3008 RMK A01 T00810044  RH  078%=      5-min Rain = 0
KBI1 230155Z 09004KT 08/04 A3008 RMK A01 T00800044  RH  078%=      5-min Rain = 0
KBI1 230156Z 10004KT 08/04 A3008 RMK A01 T00810044  RH  078%=      5-min Rain = 0
KBI1 230157Z 10003KT 08/04 A3008 RMK A01 T00810044  RH  078%=      5-min Rain = 0
KBI1 230158Z 09004KT 08/04 A3008 RMK A01 T00800044  RH  078%=      5-min Rain = 0
KBI1 230159Z 10004KT 08/04 A3008 RMK A01 T00800044  RH  078%=      5-min Rain = 0
KBI1 230200Z 10004KT 08/04 A3008 RMK A01 T00800044  RH  078%=      5-min Rain = 0
KBI1 230201Z 11004KT 08/04 A3008 RMK A01 T00800044  RH  078%=      5-min Rain = 0
KBI1 230202Z 11004KT 08/05 A3008 RMK A01 T00810045  RH  078%=      5-min Rain = 0
KBI1 230203Z 10005KT 08/05 A3008 RMK A01 T00810045  RH  078%=      5-min Rain = 0
KBI1 230204Z 09005KT 08/05 A3008 RMK A01 T00820045  RH  078%=      5-min Rain = 0
KBI1 230205Z 10004KT 08/05 A3008 RMK A01 T00820045  RH  077%=      5-min Rain = 0
KBI1 230206Z 10004KT 08/05 A3008 RMK A01 T00820045  RH  077%=      5-min Rain = 0
KBI1 230207Z 10005KT 08/05 A3008 RMK A01 T00820045  RH  077%=      5-min Rain = 0
KBI1 230208Z 10004KT 08/05 A3008 RMK A01 T00820045  RH  077%=      5-min Rain = 0
KBI1 230209Z 10004KT 08/04 A3008 RMK A01 T00810044  RH  078%=      5-min Rain = 0
KBI1 230210Z 11004KT 08/04 A3008 RMK A01 T00810044  RH  078%=      5-min Rain = 0
KBI1 230211Z 11003KT 08/04 A3008 RMK A01 T00800044  RH  078%=      5-min Rain = 0
KBI1 230212Z 11003KT 08/04 A3008 RMK A01 T00800044  RH  078%=      5-min Rain = 0
KBI1 230213Z 10003KT 08/04 A3008 RMK A01 T00790044  RH  078%=      5-min Rain = 0
KBI1 230214Z 10004KT 08/04 A3008 RMK A01 T00790044  RH  078%=      5-min Rain = 0
KBI1 230215Z 09003KT 08/04 A3008 RMK A01 T00790044  RH  078%=      5-min Rain = 0
KBI1 230216Z 09003KT 08/04 A3009 RMK A01 T00790044  RH  079%=      5-min Rain = 0
KBI1 230217Z 09003KT 08/04 A3009 RMK A01 T00790044  RH  079%=      5-min Rain = 0
KBI1 230218Z 09003KT 08/04 A3009 RMK A01 T00780044  RH  079%=      5-min Rain = 0
KBI1 230219Z 09003KT 08/04 A3009 RMK A01 T00780044  RH  079%=      5-min Rain = 0
KBI1 230220Z 09003KT 08/04 A3008 RMK A01 T00780044  RH  079%=      5-min Rain = 0
KBI1 230221Z 09004KT 08/04 A3008 RMK A01 T00780044  RH  079%=      5-min Rain = 0
KBI1 230222Z 09004KT 08/04 A3008 RMK A01 T00770044  RH  079%=      5-min Rain = 0
KBI1 230223Z 09004KT 08/04 A3008 RMK A01 T00770044  RH  079%=      5-min Rain = 0
KBI1 230224Z 10003KT 08/04 A3009 RMK A01 T00770044  RH  080%=      5-min Rain = 0
KBI1 230225Z 11004KT 08/04 A3009 RMK A01 T00770044  RH  079%=      5-min Rain = 0
KBI1 230226Z 11004KT 08/04 A3008 RMK A01 T00780044  RH  079%=      5-min Rain = 0
KBI1 230227Z 10005KT 08/04 A3009 RMK A01 T00770044  RH  079%=      5-min Rain = 0
KBI1 230228Z 10005KT 08/04 A3009 RMK A01 T00760043  RH  079%=      5-min Rain = 0
KBI1 230229Z 10005KT 08/04 A3008 RMK A01 T00760043  RH  080%=      5-min Rain = 0
KBI1 230230Z 11003KT 08/04 A3008 RMK A01 T00750043  RH  080%=      5-min Rain = 0
KBI1 230231Z 10004KT 08/04 A3009 RMK A01 T00750043  RH  080%=      5-min Rain = 0
KBI1 230232Z 11004KT 08/04 A3009 RMK A01 T00750043  RH  080%=      5-min Rain = 0
KBI1 230233Z 10004KT 07/04 A3009 RMK A01 T00740043  RH  081%=      5-min Rain = 0
KBI1 230234Z 10004KT 07/04 A3009 RMK A01 T00740043  RH  081%=      5-min Rain = 0
KBI1 230235Z 10004KT 07/04 A3009 RMK A01 T00740043  RH  081%=      5-min Rain = 0
KBI1 230236Z 10003KT 07/04 A3009 RMK A01 T00730043  RH  081%=      5-min Rain = 0
KBI1 230237Z 10004KT 07/04 A3008 RMK A01 T00730043  RH  081%=      5-min Rain = 0
KBI1 230238Z 10004KT 07/04 A3008 RMK A01 T00730044  RH  082%=      5-min Rain = 0
KBI1 230239Z 10004KT 07/04 A3008 RMK A01 T00730043  RH  082%=      5-min Rain = 0
KBI1 230240Z 11003KT 07/04 A3009 RMK A01 T00720043  RH  082%=      5-min Rain = 0
KBI1 230241Z 11003KT 07/04 A3009 RMK A01 T00720043  RH  082%=      5-min Rain = 0
KBI1 230242Z 11004KT 07/04 A3009 RMK A01 T00720043  RH  082%=      5-min Rain = 0
KBI1 230243Z 10005KT 07/04 A3009 RMK A01 T00710043  RH  082%=      5-min Rain = 0
KBI1 230244Z 10004KT 07/04 A3009 RMK A01 T00720043  RH  082%=      5-min Rain = 0
KBI1 230245Z 11005KT 07/04 A3009 RMK A01 T00710043  RH  082%=      5-min Rain = 0
KBI1 230246Z 11004KT 07/04 A3009 RMK A01 T00710043  RH  082%=      5-min Rain = 0
KBI1 230247Z 11003KT 07/04 A3009 RMK A01 T00710043  RH  082%=      5-min Rain = 0
KBI1 230248Z 10002KT 07/04 A3009 RMK A01 T00710043  RH  082%=      5-min Rain = 0
KBI1 230249Z 10002KT 07/04 A3009 RMK A01 T00700041  RH  082%=      5-min Rain = 0
KBI1 230250Z 09002KT 07/04 A3009 RMK A01 T00690042  RH  083%=      5-min Rain = 0
KBI1 230251Z 10004KT 07/04 A3009 RMK A01 T00690042  RH  083%=      5-min Rain = 0
KBI1 230252Z 11005KT 07/04 A3009 RMK A01 T00690042  RH  083%=      5-min Rain = 0
KBI1 230253Z 11004KT 07/04 A3009 RMK A01 T00690043  RH  083%=      5-min Rain = 0
KBI1 230254Z 11003KT 07/04 A3009 RMK A01 T00690043  RH  083%=      5-min Rain = 0
KBI1 230255Z 10002KT 07/04 A3009 RMK A01 T00690042  RH  083%=      5-min Rain = 0
KBI1 230256Z 11003KT 07/04 A3009 RMK A01 T00680042  RH  083%=      5-min Rain = 0
KBI1 230257Z 10003KT 07/04 A3009 RMK A01 T00680042  RH  083%=      5-min Rain = 0
KBI1 230258Z 10003KT 07/04 A3009 RMK A01 T00680042  RH  084%=      5-min Rain = 0
KBI1 230259Z 09004KT 07/04 A3009 RMK A01 T00680043  RH  084%=      5-min Rain = 0
KBI1 230300Z 09004KT 07/04 A3009 RMK A01 T00680042  RH  084%=      5-min Rain = 0
KBI1 230301Z 09004KT 07/04 A3009 RMK A01 T00680043  RH  084%=      5-min Rain = 0
KBI1 230302Z 08005KT 07/04 A3009 RMK A01 T00680043  RH  084%=      5-min Rain = 0
KBI1 230303Z 09005KT 07/04 A3009 RMK A01 T00690043  RH  084%=      5-min Rain = 0
KBI1 230304Z 10004KT 07/04 A3009 RMK A01 T00690043  RH  083%=      5-min Rain = 0
KBI1 230305Z 09004KT 07/04 A3009 RMK A01 T00690043  RH  083%=      5-min Rain = 0
KBI1 230306Z 10003KT 07/04 A3009 RMK A01 T00690043  RH  083%=      5-min Rain = 0
KBI1 230307Z 10004KT 07/04 A3009 RMK A01 T00690043  RH  083%=      5-min Rain = 0
KBI1 230308Z 09005KT 07/04 A3009 RMK A01 T00690043  RH  083%=      5-min Rain = 0
KBI1 230309Z 09005KT 07/04 A3009 RMK A01 T00700043  RH  083%=      5-min Rain = 0
KBI1 230310Z 09004KT 07/04 A3009 RMK A01 T00700043  RH  083%=      5-min Rain = 0
KBI1 230311Z 10003KT 07/04 A3009 RMK A01 T00710043  RH  083%=      5-min Rain = 0
KBI1 230312Z 11003KT 07/04 A3009 RMK A01 T00700043  RH  083%=      5-min Rain = 0
KBI1 230313Z 11004KT 07/04 A3009 RMK A01 T00710043  RH  083%=      5-min Rain = 0
KBI1 230314Z 11004KT 07/04 A3009 RMK A01 T00700043  RH  083%=      5-min Rain = 0
KBI1 230315Z 10004KT 07/04 A3009 RMK A01 T00710043  RH  083%=      5-min Rain = 0
KBI1 230316Z 11004KT 07/04 A3009 RMK A01 T00700043  RH  083%=      5-min Rain = 0
KBI1 230317Z 11004KT 07/04 A3009 RMK A01 T00700042  RH  082%=      5-min Rain = 0
KBI1 230318Z 11005KT 07/04 A3009 RMK A01 T00700043  RH  083%=      5-min Rain = 0
KBI1 230319Z 11004KT 07/04 A3009 RMK A01 T00710043  RH  083%=      5-min Rain = 0
KBI1 230320Z 11003KT 07/04 A3009 RMK A01 T00700043  RH  082%=      5-min Rain = 0
KBI1 230321Z 11004KT 07/04 A3009 RMK A01 T00700042  RH  082%=      5-min Rain = 0
KBI1 230322Z 11004KT 07/04 A3009 RMK A01 T00690042  RH  083%=      5-min Rain = 0
KBI1 230323Z 12003KT 07/04 A3009 RMK A01 T00690042  RH  083%=      5-min Rain = 0
KBI1 230324Z 11004KT 07/04 A3009 RMK A01 T00680041  RH  083%=      5-min Rain = 0
KBI1 230325Z 11004KT 07/04 A3009 RMK A01 T00680041  RH  083%=      5-min Rain = 0
KBI1 230326Z 11004KT 07/04 A3009 RMK A01 T00680041  RH  083%=      5-min Rain = 0
KBI1 230327Z 10004KT 07/04 A3009 RMK A01 T00670041  RH  084%=      5-min Rain = 0
KBI1 230328Z 11004KT 07/04 A3009 RMK A01 T00670041  RH  084%=      5-min Rain = 0
KBI1 230329Z 11004KT 07/04 A3009 RMK A01 T00670041  RH  084%=      5-min Rain = 0
KBI1 230330Z 11004KT 07/04 A3009 RMK A01 T00660041  RH  084%=      5-min Rain = 0
KBI1 230331Z 11004KT 07/04 A3009 RMK A01 T00660041  RH  084%=      5-min Rain = 0
KBI1 230332Z 12004KT 07/04 A3009 RMK A01 T00660041  RH  084%=      5-min Rain = 0
KBI1 230333Z 12005KT 07/04 A3009 RMK A01 T00660041  RH  084%=      5-min Rain = 0
KBI1 230334Z 12004KT 07/04 A3009 RMK A01 T00660041  RH  084%=      5-min Rain = 0
KBI1 230335Z 12004KT 07/04 A3009 RMK A01 T00660041  RH  084%=      5-min Rain = 0
KBI1 230336Z 11004KT 07/04 A3009 RMK A01 T00650040  RH  084%=      5-min Rain = 0
KBI1 230337Z 12003KT 06/04 A3009 RMK A01 T00640040  RH  085%=      5-min Rain = 0
KBI1 230338Z 12004KT 07/04 A3009 RMK A01 T00650041  RH  085%=      5-min Rain = 0
KBI1 230339Z 12003KT 06/04 A3009 RMK A01 T00640041  RH  085%=      5-min Rain = 0
KBI1 230340Z 13003KT 06/04 A3009 RMK A01 T00640041  RH  085%=      5-min Rain = 0
KBI1 230341Z 12003KT 06/04 A3009 RMK A01 T00640040  RH  085%=      5-min Rain = 0
KBI1 230342Z 12004KT 06/04 A3009 RMK A01 T00630040  RH  085%=      5-min Rain = 0
KBI1 230343Z 12004KT 06/04 A3009 RMK A01 T00630041  RH  086%=      5-min Rain = 0
KBI1 230344Z 12003KT 06/04 A3009 RMK A01 T00630041  RH  086%=      5-min Rain = 0
KBI1 230345Z 13003KT 06/04 A3009 RMK A01 T00630041  RH  086%=      5-min Rain = 0
KBI1 230346Z 13004KT 06/04 A3009 RMK A01 T00630041  RH  086%=      5-min Rain = 0
KBI1 230347Z 13003KT 06/04 A3009 RMK A01 T00630041  RH  086%=      5-min Rain = 0
KBI1 230348Z 13003KT 06/04 A3009 RMK A01 T00620041  RH  086%=      5-min Rain = 0
KBI1 230349Z 13003KT 06/04 A3009 RMK A01 T00620041  RH  086%=      5-min Rain = 0
KBI1 230350Z 12003KT 06/04 A3009 RMK A01 T00620041  RH  086%=      5-min Rain = 0
KBI1 230351Z 12003KT 06/04 A3009 RMK A01 T00620040  RH  086%=      5-min Rain = 0
KBI1 230352Z 13003KT 06/04 A3009 RMK A01 T00620040  RH  086%=      5-min Rain = 0
KBI1 230353Z 14003KT 06/04 A3009 RMK A01 T00620041  RH  086%=      5-min Rain = 0
KBI1 230354Z 13002KT 06/04 A3009 RMK A01 T00620041  RH  086%=      5-min Rain = 0
KBI1 230355Z 14003KT 06/04 A3009 RMK A01 T00620041  RH  086%=      5-min Rain = 0
KBI1 230356Z 14003KT 06/04 A3009 RMK A01 T00610040  RH  086%=      5-min Rain = 0
KBI1 230357Z 15003KT 06/04 A3009 RMK A01 T00610040  RH  086%=      5-min Rain = 0
KBI1 230358Z 14003KT 06/04 A3009 RMK A01 T00610040  RH  086%=      5-min Rain = 0
KBI1 230359Z 14004KT 06/04 A3009 RMK A01 T00610040  RH  087%=      5-min Rain = 0
KBI1 230400Z 15003KT 06/04 A3009 RMK A01 T00610040  RH  087%=      5-min Rain = 0
KBI1 230401Z 14003KT 06/04 A3009 RMK A01 T00610040  RH  087%=      5-min Rain = 0
KBI1 230402Z 15003KT 06/04 A301 RMK A01 T00610040  RH  087%=      5-min Rain = 0
KBI1 230403Z 15003KT 06/04 A301 RMK A01 T00600040  RH  087%=      5-min Rain = 0
KBI1 230404Z 16003KT 06/04 A301 RMK A01 T00600040  RH  087%=      5-min Rain = 0
KBI1 230405Z 16003KT 06/04 A301 RMK A01 T00600040  RH  087%=      5-min Rain = 0
KBI1 230406Z 15003KT 06/04 A301 RMK A01 T00600040  RH  087%=      5-min Rain = 0
KBI1 230407Z 15003KT 06/04 A301 RMK A01 T00600040  RH  087%=      5-min Rain = 0
KBI1 230408Z 15003KT 06/04 A301 RMK A01 T00600040  RH  087%=      5-min Rain = 0
KBI1 230409Z 16003KT 06/04 A301 RMK A01 T00600040  RH  087%=      5-min Rain = 0
KBI1 230410Z 16002KT 06/04 A301 RMK A01 T00590040  RH  087%=      5-min Rain = 0
KBI1 230411Z 14002KT 06/04 A301 RMK A01 T00590040  RH  087%=      5-min Rain = 0
KBI1 230412Z 14002KT 06/04 A301 RMK A01 T00590040  RH  087%=      5-min Rain = 0
KBI1 230413Z 13002KT 06/04 A301 RMK A01 T00590040  RH  087%=      5-min Rain = 0
KBI1 230414Z 14002KT 06/04 A301 RMK A01 T00590040  RH  087%=      5-min Rain = 0
KBI1 230415Z 16003KT 06/04 A301 RMK A01 T00590039  RH  087%=      5-min Rain = 0
KBI1 230416Z 16003KT 06/04 A301 RMK A01 T00580039  RH  088%=      5-min Rain = 0
KBI1 230417Z 16004KT 06/04 A301 RMK A01 T00580040  RH  088%=      5-min Rain = 0
KBI1 230418Z 16003KT 06/04 A301 RMK A01 T00580040  RH  088%=      5-min Rain = 0
KBI1 230419Z 16003KT 06/04 A301 RMK A01 T00580040  RH  088%=      5-min Rain = 0
KBI1 230420Z 15003KT 06/04 A3011 RMK A01 T00590040  RH  088%=      5-min Rain = 0
KBI1 230421Z 14003KT 06/04 A3011 RMK A01 T00580040  RH  088%=      5-min Rain = 0
KBI1 230422Z 15002KT 06/04 A3011 RMK A01 T00580040  RH  088%=      5-min Rain = 0
KBI1 230423Z 14003KT 06/04 A3011 RMK A01 T00580040  RH  088%=      5-min Rain = 0
KBI1 230424Z 15002KT 06/04 A3011 RMK A01 T00590040  RH  088%=      5-min Rain = 0
KBI1 230425Z 17002KT 06/04 A3011 RMK A01 T00590040  RH  088%=      5-min Rain = 0
KBI1 230426Z 18003KT 06/04 A3011 RMK A01 T00580039  RH  088%=      5-min Rain = 0
KBI1 230427Z 17003KT 06/04 A3011 RMK A01 T00570038  RH  088%=      5-min Rain = 0
KBI1 230428Z 17003KT 06/04 A3011 RMK A01 T00560037  RH  088%=      5-min Rain = 0
KBI1 230429Z 17003KT 06/04 A3011 RMK A01 T00550037  RH  088%=      5-min Rain = 0
KBI1 230430Z 17003KT 05/04 A3011 RMK A01 T00540037  RH  088%=      5-min Rain = 0
KBI1 230431Z 16004KT 05/04 A3011 RMK A01 T00540037  RH  089%=      5-min Rain = 0
KBI1 230432Z 17003KT 05/04 A3011 RMK A01 T00540037  RH  089%=      5-min Rain = 0
KBI1 230433Z 17004KT 05/04 A3011 RMK A01 T00540037  RH  089%=      5-min Rain = 0
KBI1 230434Z 17004KT 05/04 A3011 RMK A01 T00530037  RH  089%=      5-min Rain = 0
KBI1 230435Z 17004KT 05/04 A3011 RMK A01 T00530037  RH  089%=      5-min Rain = 0
KBI1 230436Z 17004KT 05/04 A3011 RMK A01 T00530037  RH  089%=      5-min Rain = 0
KBI1 230437Z 16004KT 05/04 A3011 RMK A01 T00530037  RH  090%=      5-min Rain = 0
KBI1 230438Z 16004KT 05/04 A3011 RMK A01 T00530037  RH  090%=      5-min Rain = 0
KBI1 230439Z 17005KT 05/04 A3011 RMK A01 T00520037  RH  090%=      5-min Rain = 0
KBI1 230440Z 17005KT 05/04 A3011 RMK A01 T00530037  RH  090%=      5-min Rain = 0
KBI1 230441Z 17004KT 05/04 A3011 RMK A01 T00530037  RH  090%=      5-min Rain = 0
KBI1 230442Z 17004KT 05/04 A3011 RMK A01 T00520037  RH  090%=      5-min Rain = 0
KBI1 230443Z 16004KT 05/04 A3011 RMK A01 T00520037  RH  090%=      5-min Rain = 0
KBI1 230444Z 17005KT 05/04 A3011 RMK A01 T00520037  RH  090%=      5-min Rain = 0
KBI1 230445Z 17005KT 05/04 A3011 RMK A01 T00520037  RH  090%=      5-min Rain = 0
KBI1 230446Z 17004KT 05/04 A3011 RMK A01 T00520037  RH  090%=      5-min Rain = 0
KBI1 230447Z 16004KT 05/04 A3011 RMK A01 T00510036  RH  090%=      5-min Rain = 0
KBI1 230448Z 16004KT 05/04 A3011 RMK A01 T00510037  RH  090%=      5-min Rain = 0
KBI1 230449Z 16004KT 05/04 A3011 RMK A01 T00510037  RH  090%=      5-min Rain = 0
KBI1 230450Z 16003KT 05/04 A3011 RMK A01 T00510037  RH  090%=      5-min Rain = 0
KBI1 230451Z 16003KT 05/04 A3011 RMK A01 T00510037  RH  091%=      5-min Rain = 0
KBI1 230452Z 17004KT 05/04 A3011 RMK A01 T00510037  RH  091%=      5-min Rain = 0
KBI1 230453Z 17005KT 05/04 A3011 RMK A01 T00510037  RH  091%=      5-min Rain = 0
KBI1 230454Z 17005KT 05/04 A3011 RMK A01 T00510037  RH  091%=      5-min Rain = 0
KBI1 230455Z 17004KT 05/04 A3011 RMK A01 T00510037  RH  091%=      5-min Rain = 0
KBI1 230456Z 17005KT 05/04 A3011 RMK A01 T00510037  RH  091%=      5-min Rain = 0
KBI1 230457Z 17005KT 05/04 A3011 RMK A01 T00510036  RH  090%=      5-min Rain = 0
KBI1 230458Z 17005KT 05/04 A3011 RMK A01 T00500036  RH  091%=      5-min Rain = 0
KBI1 230459Z 17004KT 05/04 A3011 RMK A01 T00500036  RH  091%=      5-min Rain = 0
KBI1 230500Z 17005KT 05/04 A3011 RMK A01 T00500036  RH  091%=      5-min Rain = 0
KBI1 230501Z 17005KT 05/04 A3011 RMK A01 T00500036  RH  091%=      5-min Rain = 0
KBI1 230502Z 16005KT 05/04 A3011 RMK A01 T00500036  RH  091%=      5-min Rain = 0
KBI1 230503Z 17005KT 05/04 A3011 RMK A01 T00500036  RH  091%=      5-min Rain = 0
KBI1 230504Z 17005KT 05/04 A3011 RMK A01 T00490035  RH  091%=      5-min Rain = 0
KBI1 230505Z 17005KT 05/04 A3011 RMK A01 T00490035  RH  091%=      5-min Rain = 0
KBI1 230506Z 16004KT 05/04 A3011 RMK A01 T00480035  RH  091%=      5-min Rain = 0
KBI1 230507Z 16005KT 05/03 A3011 RMK A01 T00480034  RH  091%=      5-min Rain = 0
KBI1 230508Z 16005KT 05/03 A3011 RMK A01 T00480034  RH  091%=      5-min Rain = 0
KBI1 230509Z 17005KT 05/04 A3011 RMK A01 T00470035  RH  091%=      5-min Rain = 0
KBI1 230510Z 16004KT 05/04 A3011 RMK A01 T00480035  RH  091%=      5-min Rain = 0
KBI1 230511Z 16005KT 05/04 A3011 RMK A01 T00470035  RH  091%=      5-min Rain = 0
KBI1 230512Z 17005KT 05/04 A3011 RMK A01 T00470035  RH  092%=      5-min Rain = 0
KBI1 230513Z 16005KT 05/03 A3011 RMK A01 T00470034  RH  091%=      5-min Rain = 0
KBI1 230514Z 17005KT 05/03 A3011 RMK A01 T00470034  RH  092%=      5-min Rain = 0
KBI1 230515Z 17005KT 05/03 A3011 RMK A01 T00470034  RH  092%=      5-min Rain = 0
KBI1 230516Z 17005KT 05/03 A3011 RMK A01 T00470034  RH  092%=      5-min Rain = 0
KBI1 230517Z 17005KT 05/03 A3011 RMK A01 T00470034  RH  092%=      5-min Rain = 0
KBI1 230518Z 17005KT 05/03 A3011 RMK A01 T00470034  RH  092%=      5-min Rain = 0
KBI1 230519Z 17004KT 05/03 A3011 RMK A01 T00460034  RH  092%=      5-min Rain = 0
KBI1 230520Z 16004KT 05/03 A3011 RMK A01 T00460034  RH  092%=      5-min Rain = 0
KBI1 230521Z 16004KT 05/03 A3011 RMK A01 T00460034  RH  092%=      5-min Rain = 0
KBI1 230522Z 16004KT 05/03 A3011 RMK A01 T00460034  RH  092%=      5-min Rain = 0
KBI1 230523Z 16005KT 05/04 A3011 RMK A01 T00460035  RH  092%=      5-min Rain = 0
KBI1 230524Z 16005KT 05/04 A3011 RMK A01 T00460035  RH  092%=      5-min Rain = 0
KBI1 230525Z 17005KT 05/03 A3011 RMK A01 T00460034  RH  092%=      5-min Rain = 0
KBI1 230526Z 17004KT 05/03 A3011 RMK A01 T00460034  RH  092%=      5-min Rain = 0
KBI1 230527Z 16004KT 05/04 A3011 RMK A01 T00460035  RH  092%=      5-min Rain = 0
KBI1 230528Z 16004KT 05/03 A3011 RMK A01 T00460034  RH  092%=      5-min Rain = 0
KBI1 230529Z 17004KT 05/03 A3011 RMK A01 T00460034  RH  092%=      5-min Rain = 0
KBI1 230530Z 17005KT 05/03 A3011 RMK A01 T00460034  RH  092%=      5-min Rain = 0
KBI1 230531Z 17004KT 05/04 A3011 RMK A01 T00460035  RH  092%=      5-min Rain = 0
KBI1 230532Z 16004KT 05/03 A3011 RMK A01 T00460034  RH  092%=      5-min Rain = 0
KBI1 230533Z 16004KT 05/03 A3011 RMK A01 T00460034  RH  092%=      5-min Rain = 0
KBI1 230534Z 17004KT 05/03 A3011 RMK A01 T00460034  RH  092%=      5-min Rain = 0
KBI1 230535Z 17005KT 05/03 A3011 RMK A01 T00450034  RH  092%=      5-min Rain = 0
KBI1 230536Z 17004KT 05/03 A3011 RMK A01 T00460034  RH  092%=      5-min Rain = 0
KBI1 230537Z 17004KT 05/03 A3011 RMK A01 T00460034  RH  092%=      5-min Rain = 0
KBI1 230538Z 17004KT 05/03 A3011 RMK A01 T00450033  RH  092%=      5-min Rain = 0
KBI1 230539Z 17004KT 05/03 A3011 RMK A01 T00450034  RH  092%=      5-min Rain = 0
KBI1 230540Z 17004KT 05/03 A3011 RMK A01 T00450034  RH  092%=      5-min Rain = 0
KBI1 230541Z 17004KT 05/03 A3011 RMK A01 T00450034  RH  092%=      5-min Rain = 0
KBI1 230542Z 17003KT 05/03 A3011 RMK A01 T00450034  RH  092%=      5-min Rain = 0
KBI1 230543Z 17004KT 05/03 A3011 RMK A01 T00450034  RH  092%=      5-min Rain = 0
KBI1 230544Z 17004KT 05/03 A3011 RMK A01 T00450033  RH  092%=      5-min Rain = 0
KBI1 230545Z 17004KT 05/03 A3011 RMK A01 T00450033  RH  092%=      5-min Rain = 0
KBI1 230546Z 18004KT 05/03 A3011 RMK A01 T00450033  RH  092%=      5-min Rain = 0
KBI1 230547Z 18005KT 04/03 A3011 RMK A01 T00440032  RH  092%=      5-min Rain = 0
KBI1 230548Z 18005KT 04/03 A3011 RMK A01 T00440033  RH  093%=      5-min Rain = 0
KBI1 230549Z 18005KT 04/03 A3011 RMK A01 T00440032  RH  092%=      5-min Rain = 0
KBI1 230550Z 18004KT 04/03 A3011 RMK A01 T00440033  RH  093%=      5-min Rain = 0
KBI1 230551Z 18005KT 04/03 A3011 RMK A01 T00430032  RH  093%=      5-min Rain = 0
KBI1 230552Z 18004KT 04/03 A3011 RMK A01 T00430033  RH  093%=      5-min Rain = 0
KBI1 230553Z 18004KT 04/03 A3011 RMK A01 T00430033  RH  093%=      5-min Rain = 0
KBI1 230554Z 18004KT 04/03 A3011 RMK A01 T00430032  RH  093%=      5-min Rain = 0
KBI1 230555Z 18004KT 04/03 A3011 RMK A01 T00430032  RH  093%=      5-min Rain = 0
KBI1 230556Z 18005KT 04/03 A3011 RMK A01 T00420031  RH  093%=      5-min Rain = 0
KBI1 230557Z 18004KT 04/03 A3011 RMK A01 T00420031  RH  093%=      5-min Rain = 0
KBI1 230558Z 19005KT 04/03 A3011 RMK A01 T00410031  RH  093%=      5-min Rain = 0
KBI1 230559Z 18005KT 04/03 A3011 RMK A01 T00410030  RH  093%=      5-min Rain = 0

Page generated in 0.0738 seconds.